IT9IJI-13 Weather Reports


Display with metric or nautical units.
time (UTC)temp
F
wind
direction
speed
MPH
gust
MPH
rain 1hr
in
rain 24hr
in
rain mn
in
humidity
%
barometer
mb
20260901003804 82 295 4.0 11.0 0.00 0.00 0.00 71 1016.3
20260901003704 82 296 4.0 11.0 0.00 0.00 0.00 71 1016.3
20260901003604 82 295 3.0 11.0 0.00 0.00 0.00 71 1016.3
20260901003504 82 295 4.0 11.0 0.00 0.00 0.00 70 1016.3
20260901003404 82 295 3.0 9.0 0.00 0.00 0.00 70 1016.2
20260901003304 82 296 3.0 9.0 0.00 0.00 0.00 70 1016.3
20260901003204 82 295 3.0 9.0 0.00 0.00 0.00 70 1016.3
20260901003104 82 296 3.0 9.0 0.00 0.00 0.00 70 1016.3
20260901003004 82 296 3.0 9.0 0.00 0.00 0.00 70 1016.3
20260901002904 82 296 3.0 7.0 0.00 0.00 0.00 70 1016.3
20260901002804 82 297 3.0 7.0 0.00 0.00 0.00 70 1016.3
20260901002703 82 295 3.0 7.0 0.00 0.00 0.00 70 1016.3
20260901002603 82 295 3.0 7.0 0.00 0.00 0.00 70 1016.2
20260901002504 82 295 3.0 7.0 0.00 0.00 0.00 70 1016.2
20260901002403 82 296 3.0 7.0 0.00 0.00 0.00 70 1016.2
20260901002305 82 294 3.0 7.0 0.00 0.00 0.00 70 1016.2
20260901002204 82 295 3.0 7.0 0.00 0.00 0.00 71 1016.2
20260901002103 82 293 3.0 7.0 0.00 0.00 0.00 71 1016.2
20260901002004 82 291 2.0 7.0 0.00 0.00 0.00 71 1016.2
20260901001903 82 292 3.0 7.0 0.00 0.00 0.00 71 1016.2
20260901001804 82 292 3.0 7.0 0.00 0.00 0.00 71 1016.2
20260901001703 82 292 3.0 7.0 0.00 0.00 0.00 71 1016.2
20260901001604 82 292 3.0 6.0 0.00 0.00 0.00 71 1016.2
20260901001504 82 292 3.0 6.0 0.00 0.00 0.00 71 1016.2
20260901001403 82 292 2.0 6.0 0.00 0.00 0.00 71 1016.2
20260901001303 82 296 2.0 9.0 0.00 0.00 0.00 71 1016.3
20260901001203 82 298 2.0 9.0 0.00 0.00 0.00 71 1016.3
20260901001104 82 298 2.0 9.0 0.00 0.00 0.00 70 1016.2
20260901001003 82 300 2.0 9.0 0.00 0.00 0.00 70 1016.2
20260901000903 82 300 2.0 9.0 0.00 0.00 0.00 70 1016.2
20260901000803 82 300 2.0 9.0 0.00 0.00 0.00 70 1016.2
20260901000703 82 301 2.0 9.0 0.00 0.00 0.00 70 1016.2
20260901000603 82 304 3.0 9.0 0.00 0.00 0.00 70 1016.1
20260901000503 82 303 3.0 9.0 0.00 0.00 0.00 70 1016.2
20260901000405 82 301 3.0 9.0 0.00 0.00 0.00 70 1016.2
20260901000303 82 299 4.0 9.0 0.00 0.00 0.00 70 1016.2
20260901000204 82 298 4.0 9.0 0.00 0.00 0.00 70 1016.2
20260901000103 82 299 4.0 9.0 0.00 0.00 0.00 70 1016.1
20260901000003 82 299 4.0 9.0 0.00 0.00 0.00 70 1016.1
20260831235903 82 298 4.0 9.0 0.00 0.00 0.00 70 1016.2
20260831235803 82 298 5.0 9.0 0.00 0.00 0.00 71 1016.2
20260831235703 82 299 5.0 9.0 0.00 0.00 0.00 71 1016.2
20260831235603 82 297 5.0 9.0 0.00 0.00 0.00 71 1016.2
20260831235504 82 297 5.0 9.0 0.00 0.00 0.00 71 1016.2
20260831235403 82 297 4.0 9.0 0.00 0.00 0.00 71 1016.2
20260831235306 82 297 4.0 9.0 0.00 0.00 0.00 71 1016.3
20260831235203 82 297 4.0 9.0 0.00 0.00 0.00 71 1016.2
20260831235103 82 297 4.0 9.0 0.00 0.00 0.00 71 1016.2
20260831235003 82 296 4.0 9.0 0.00 0.00 0.00 71 1016.2
20260831234903 82 297 4.0 9.0 0.00 0.00 0.00 72 1016.2
20260831234803 82 297 4.0 9.0 0.00 0.00 0.00 71 1016.2
20260831234703 82 295 4.0 7.0 0.00 0.00 0.00 72 1016.2
20260831234603 82 296 4.0 7.0 0.00 0.00 0.00 72 1016.2
20260831234503 82 296 4.0 7.0 0.00 0.00 0.00 72 1016.1
20260831234403 82 296 4.0 7.0 0.00 0.00 0.00 72 1016.0
20260831234303 82 296 4.0 7.0 0.00 0.00 0.00 72 1016.1
20260831234203 82 296 4.0 7.0 0.00 0.00 0.00 71 1016.2
20260831234103 82 296 4.0 9.0 0.00 0.00 0.00 72 1016.2
20260831234003 82 296 4.0 9.0 0.00 0.00 0.00 71 1016.1
20260831233903 82 296 5.0 10.0 0.00 0.00 0.00 71 1016.1
20260831233803 82 297 5.0 10.0 0.00 0.00 0.00 71 1016.1
20260831233703 82 299 5.0 10.0 0.00 0.00 0.00 71 1016.1
20260831233603 82 299 5.0 10.0 0.00 0.00 0.00 71 1016.2
20260831233503 82 300 5.0 10.0 0.00 0.00 0.00 71 1016.2
20260831233403 82 300 5.0 10.0 0.00 0.00 0.00 71 1016.3
20260831233303 82 300 5.0 10.0 0.00 0.00 0.00 71 1016.2
20260831233203 82 300 5.0 10.0 0.00 0.00 0.00 71 1016.3
20260831233103 82 300 5.0 10.0 0.00 0.00 0.00 71 1016.2
20260831233003 82 300 5.0 10.0 0.00 0.00 0.00 71 1016.2
20260831232903 82 300 5.0 9.0 0.00 0.00 0.00 71 1016.3
20260831232803 82 299 5.0 8.0 0.00 0.00 0.00 71 1016.3
20260831232703 82 298 5.0 8.0 0.00 0.00 0.00 71 1016.2
20260831232603 82 297 4.0 8.0 0.00 0.00 0.00 71 1016.2
20260831232503 82 296 4.0 8.0 0.00 0.00 0.00 71 1016.2
20260831232403 82 297 4.0 8.0 0.00 0.00 0.00 70 1016.3
20260831232305 83 299 5.0 9.0 0.00 0.00 0.00 70 1016.3
20260831232203 82 299 5.0 9.0 0.00 0.00 0.00 70 1016.2
20260831232103 82 300 5.0 9.0 0.00 0.00 0.00 70 1016.2
20260831232003 82 300 5.0 9.0 0.00 0.00 0.00 70 1016.2
20260831231903 83 301 5.0 9.0 0.00 0.00 0.00 70 1016.2
20260831231803 83 302 5.0 9.0 0.00 0.00 0.00 70 1016.3
20260831231703 82 303 5.0 9.0 0.00 0.00 0.00 70 1016.2
20260831231603 83 303 5.0 9.0 0.00 0.00 0.00 70 1016.2
20260831231504 83 303 6.0 9.0 0.00 0.00 0.00 70 1016.2
20260831231403 83 303 6.0 9.0 0.00 0.00 0.00 70 1016.3
20260831231304 83 301 5.0 9.0 0.00 0.00 0.00 70 1016.3
20260831231203 83 300 5.0 7.0 0.00 0.00 0.00 69 1016.2
20260831231004 83 299 4.0 9.0 0.00 0.00 0.00 69 1016.3
20260831230904 83 299 4.0 9.0 0.00 0.00 0.00 69 1016.3
20260831230804 83 300 4.0 9.0 0.00 0.00 0.00 69 1016.3
20260831230704 83 301 4.0 9.0 0.00 0.00 0.00 70 1016.4
20260831230604 83 300 4.0 9.0 0.00 0.00 0.00 70 1016.5
20260831230504 83 298 4.0 9.0 0.00 0.00 0.00 69 1016.4
20260831230403 83 298 4.0 9.0 0.00 0.00 0.00 70 1016.4
20260831230304 83 299 4.0 9.0 0.00 0.00 0.00 70 1016.4
20260831230203 83 300 4.0 8.0 0.00 0.00 0.00 70 1016.4
20260831230103 83 299 4.0 8.0 0.00 0.00 0.00 70 1016.4
20260831230004 83 299 5.0 9.0 0.00 0.00 0.00 69 1016.4
20260831225903 83 299 4.0 9.0 0.00 0.00 0.00 70 1016.4
20260831225803 83 300 4.0 9.0 0.00 0.00 0.00 69 1016.4
20260831225703 83 299 5.0 9.0 0.00 0.00 0.00 69 1016.4
20260831225603 83 301 5.0 9.0 0.00 0.00 0.00 70 1016.4
20260831225503 83 302 5.0 9.0 0.00 0.00 0.00 69 1016.4
20260831225403 83 301 5.0 9.0 0.00 0.00 0.00 70 1016.4
20260831225306 83 302 5.0 9.0 0.00 0.00 0.00 70 1016.4
20260831225203 83 301 5.0 9.0 0.00 0.00 0.00 70 1016.4
20260831225103 83 301 5.0 9.0 0.00 0.00 0.00 70 1016.4
20260831225003 83 302 5.0 9.0 0.00 0.00 0.00 70 1016.4
20260831224903 83 302 5.0 9.0 0.00 0.00 0.00 70 1016.4
20260831224803 83 301 5.0 9.0 0.00 0.00 0.00 70 1016.4
20260831224703 83 301 4.0 9.0 0.00 0.00 0.00 70 1016.4
20260831224603 83 300 4.0 9.0 0.00 0.00 0.00 69 1016.4
20260831224503 83 299 4.0 9.0 0.00 0.00 0.00 69 1016.4
20260831224403 83 300 4.0 8.0 0.00 0.00 0.00 69 1016.3
20260831224303 83 301 4.0 8.0 0.00 0.00 0.00 69 1016.4
20260831224203 83 301 4.0 8.0 0.00 0.00 0.00 69 1016.4
20260831224103 83 301 4.0 7.0 0.00 0.00 0.00 70 1016.4
20260831224003 83 300 4.0 7.0 0.00 0.00 0.00 70 1016.5
20260831223903 83 299 4.0 7.0 0.00 0.00 0.00 69 1016.4
20260831223803 83 300 5.0 8.0 0.00 0.00 0.00 70 1016.4
20260831223703 83 301 5.0 8.0 0.00 0.00 0.00 69 1016.4
20260831223603 83 302 5.0 8.0 0.00 0.00 0.00 70 1016.5
20260831223503 83 301 5.0 8.0 0.00 0.00 0.00 69 1016.5
20260831223403 83 301 5.0 8.0 0.00 0.00 0.00 69 1016.5
20260831223303 83 300 4.0 8.0 0.00 0.00 0.00 70 1016.5
20260831223203 83 300 4.0 8.0 0.00 0.00 0.00 69 1016.5
20260831223103 83 299 4.0 8.0 0.00 0.00 0.00 69 1016.6
20260831223003 83 300 4.0 8.0 0.00 0.00 0.00 69 1016.5
20260831222903 83 302 4.0 8.0 0.00 0.00 0.00 70 1016.5
20260831222803 83 301 4.0 8.0 0.00 0.00 0.00 69 1016.5
20260831222703 83 298 3.0 8.0 0.00 0.00 0.00 69 1016.5
20260831222603 83 297 3.0 7.0 0.00 0.00 0.00 69 1016.5
20260831222503 83 299 3.0 7.0 0.00 0.00 0.00 69 1016.5
20260831222403 83 298 3.0 7.0 0.00 0.00 0.00 69 1016.5
20260831222306 83 298 3.0 7.0 0.00 0.00 0.00 69 1016.5
20260831222203 83 299 3.0 7.0 0.00 0.00 0.00 69 1016.5
20260831222103 83 300 3.0 7.0 0.00 0.00 0.00 69 1016.5
20260831222003 83 300 3.0 7.0 0.00 0.00 0.00 69 1016.5
20260831221903 83 301 4.0 7.0 0.00 0.00 0.00 69 1016.5
20260831221803 83 300 4.0 9.0 0.00 0.00 0.00 69 1016.5
20260831221703 83 302 4.0 9.0 0.00 0.00 0.00 69 1016.5
20260831221603 83 302 3.0 9.0 0.00 0.00 0.00 69 1016.6
20260831221503 83 301 3.0 9.0 0.00 0.00 0.00 69 1016.5
20260831221403 83 301 3.0 9.0 0.00 0.00 0.00 69 1016.4
20260831221303 83 301 3.0 9.0 0.00 0.00 0.00 69 1016.5
20260831221203 83 299 3.0 9.0 0.00 0.00 0.00 69 1016.5
20260831221103 83 299 3.0 9.0 0.00 0.00 0.00 70 1016.5
20260831221003 83 299 4.0 9.0 0.00 0.00 0.00 69 1016.5
20260831220903 83 299 3.0 9.0 0.00 0.00 0.00 69 1016.5
20260831220803 83 301 3.0 7.0 0.00 0.00 0.00 69 1016.6
20260831220703 83 299 3.0 7.0 0.00 0.00 0.00 69 1016.6
20260831220603 83 301 3.0 7.0 0.00 0.00 0.00 69 1016.7
20260831220503 83 299 4.0 10.0 0.00 0.00 0.00 69 1016.6
20260831220403 83 301 4.0 10.0 0.00 0.00 0.00 69 1016.6
20260831220303 83 300 4.0 10.0 0.00 0.00 0.00 69 1016.7
20260831220203 83 300 4.0 10.0 0.00 0.00 0.00 69 1016.7
20260831220103 83 301 4.0 10.0 0.00 0.00 0.00 69 1016.7
20260831215903 83 301 4.0 10.0 0.00 0.00 0.00 69 1016.6
20260831215803 83 299 4.0 10.0 0.00 0.00 0.00 69 1016.6
20260831215703 83 301 4.0 10.0 0.00 0.00 0.00 69 1016.6
20260831215603 83 300 4.0 10.0 0.00 0.00 0.00 69 1016.7
20260831215503 83 301 4.0 8.0 0.00 0.00 0.00 69 1016.7
20260831215403 83 302 4.0 8.0 0.00 0.00 0.00 69 1016.7
20260831215306 83 300 4.0 8.0 0.00 0.00 0.00 69 1016.6
20260831215203 83 300 4.0 11.0 0.00 0.00 0.00 69 1016.7
20260831215103 83 301 4.0 11.0 0.00 0.00 0.00 69 1016.7
20260831215003 83 300 4.0 11.0 0.00 0.00 0.00 69 1016.7
20260831214903 83 300 4.0 11.0 0.00 0.00 0.00 69 1016.6
20260831214803 83 301 5.0 11.0 0.00 0.00 0.00 69 1016.7
20260831214703 83 298 5.0 11.0 0.00 0.00 0.00 69 1016.7
20260831214603 83 299 5.0 11.0 0.00 0.00 0.00 69 1016.6
20260831214503 83 298 5.0 11.0 0.00 0.00 0.00 69 1016.6
20260831214403 83 297 5.0 11.0 0.00 0.00 0.00 69 1016.5
20260831214303 83 299 6.0 11.0 0.00 0.00 0.00 70 1016.6
20260831214203 83 299 5.0 11.0 0.00 0.00 0.00 70 1016.6
20260831214103 83 299 6.0 11.0 0.00 0.00 0.00 70 1016.5
20260831214003 83 299 5.0 11.0 0.00 0.00 0.00 70 1016.5
20260831213903 83 298 5.0 11.0 0.00 0.00 0.00 70 1016.6
20260831213803 83 297 5.0 9.0 0.00 0.00 0.00 69 1016.7
20260831213703 83 298 5.0 9.0 0.00 0.00 0.00 70 1016.7
20260831213603 83 299 5.0 8.0 0.00 0.00 0.00 69 1016.8
20260831213503 83 299 4.0 8.0 0.00 0.00 0.00 69 1016.8
20260831213403 83 300 4.0 8.0 0.00 0.00 0.00 69 1016.8
20260831213303 83 299 4.0 7.0 0.00 0.00 0.00 69 1016.8
20260831213204 83 298 4.0 7.0 0.00 0.00 0.00 69 1016.7
20260831213104 83 298 4.0 8.0 0.00 0.00 0.00 69 1016.7
20260831213004 83 298 4.0 8.0 0.00 0.00 0.00 69 1016.8
20260831212904 83 298 4.0 8.0 0.00 0.00 0.00 69 1016.8
20260831212804 83 298 4.0 8.0 0.00 0.00 0.00 69 1016.8
20260831212704 83 297 4.0 8.0 0.00 0.00 0.00 69 1016.8
20260831212604 83 296 4.0 8.0 0.00 0.00 0.00 69 1016.7
20260831212504 83 295 3.0 8.0 0.00 0.00 0.00 69 1016.7
20260831212404 83 296 3.0 8.0 0.00 0.00 0.00 69 1016.8
20260831212306 83 295 3.0 8.0 0.00 0.00 0.00 69 1016.7
20260831212204 83 296 3.0 8.0 0.00 0.00 0.00 69 1016.7
20260831212104 83 295 3.0 8.0 0.00 0.00 0.00 69 1016.7
20260831212004 83 295 3.0 10.0 0.00 0.00 0.00 69 1016.6
20260831211904 83 295 4.0 10.0 0.00 0.00 0.00 69 1016.7
20260831211804 83 294 4.0 10.0 0.00 0.00 0.00 69 1016.7
20260831211704 83 294 4.0 10.0 0.00 0.00 0.00 69 1016.7
20260831211604 83 295 4.0 10.0 0.00 0.00 0.00 69 1016.7
20260831211504 83 296 4.0 10.0 0.00 0.00 0.00 69 1016.6
20260831211404 83 296 5.0 10.0 0.00 0.00 0.00 69 1016.7
20260831211304 83 297 5.0 10.0 0.00 0.00 0.00 69 1016.6
20260831211204 83 296 5.0 10.0 0.00 0.00 0.00 69 1016.6
20260831211104 83 296 4.0 10.0 0.00 0.00 0.00 69 1016.6
20260831211004 83 297 4.0 9.0 0.00 0.00 0.00 69 1016.6
20260831210904 83 297 4.0 9.0 0.00 0.00 0.00 69 1016.6
20260831210804 83 299 4.0 11.0 0.00 0.00 0.00 69 1016.6
20260831210704 83 299 4.0 11.0 0.00 0.00 0.00 69 1016.6
20260831210604 83 299 5.0 11.0 0.00 0.00 0.00 69 1016.5
20260831210504 83 298 5.0 11.0 0.00 0.00 0.00 69 1016.5
20260831210404 83 298 5.0 11.0 0.00 0.00 0.00 69 1016.5
20260831210304 83 297 5.0 11.0 0.00 0.00 0.00 69 1016.6
20260831210204 83 297 5.0 11.0 0.00 0.00 0.00 69 1016.6
20260831210104 83 297 5.0 11.0 0.00 0.00 0.00 70 1016.5
20260831210004 83 297 5.0 11.0 0.00 0.00 0.00 70 1016.5
20260831205904 83 298 5.0 11.0 0.00 0.00 0.00 70 1016.6
20260831205804 83 297 5.0 11.0 0.00 0.00 0.00 70 1016.6
20260831205704 83 297 5.0 11.0 0.00 0.00 0.00 70 1016.5
20260831205604 83 296 5.0 11.0 0.00 0.00 0.00 70 1016.5
20260831205504 83 296 5.0 11.0 0.00 0.00 0.00 70 1016.5
20260831205404 83 295 5.0 9.0 0.00 0.00 0.00 70 1016.5
20260831205305 83 294 5.0 10.0 0.00 0.00 0.00 70 1016.5
20260831205204 83 295 5.0 10.0 0.00 0.00 0.00 70 1016.5
20260831205104 83 294 4.0 10.0 0.00 0.00 0.00 70 1016.5
20260831205004 83 294 5.0 10.0 0.00 0.00 0.00 70 1016.5
20260831204904 83 294 5.0 11.0 0.00 0.00 0.00 70 1016.5
20260831204804 83 294 5.0 11.0 0.00 0.00 0.00 70 1016.5
20260831204704 83 294 5.0 11.0 0.00 0.00 0.00 70 1016.6
20260831204604 83 294 5.0 11.0 0.00 0.00 0.00 70 1016.5
20260831204504 83 295 5.0 11.0 0.00 0.00 0.00 70 1016.5
20260831204403 83 296 5.0 11.0 0.00 0.00 0.00 70 1016.6
20260831204303 83 296 5.0 11.0 0.00 0.00 0.00 70 1016.5
20260831204203 83 295 5.0 13.0 0.00 0.00 0.00 70 1016.5
20260831204103 83 295 5.0 13.0 0.00 0.00 0.00 70 1016.5
20260831204003 83 296 5.0 13.0 0.00 0.00 0.00 70 1016.5
20260831203903 83 297 5.0 13.0 0.00 0.00 0.00 70 1016.4
20260831203803 83 299 5.0 13.0 0.00 0.00 0.00 70 1016.4
20260831203703 83 299 5.0 13.0 0.00 0.00 0.00 70 1016.4
20260831203603 83 299 5.0 13.0 0.00 0.00 0.00 70 1016.4
20260831203503 83 300 6.0 13.0 0.00 0.00 0.00 70 1016.4
20260831203403 83 301 5.0 13.0 0.00 0.00 0.00 70 1016.4
20260831203303 83 302 5.0 13.0 0.00 0.00 0.00 70 1016.4
20260831203203 83 304 5.0 10.0 0.00 0.00 0.00 70 1016.4
20260831203103 83 305 5.0 10.0 0.00 0.00 0.00 70 1016.4
20260831203003 83 305 5.0 10.0 0.00 0.00 0.00 70 1016.4
20260831202903 83 303 5.0 10.0 0.00 0.00 0.00 70 1016.4
20260831202803 83 304 5.0 10.0 0.00 0.00 0.00 70 1016.4
20260831202703 83 303 4.0 10.0 0.00 0.00 0.00 70 1016.3
20260831202603 83 302 4.0 10.0 0.00 0.00 0.00 69 1016.3
20260831202503 83 302 4.0 8.0 0.00 0.00 0.00 69 1016.2
20260831202403 84 302 4.0 8.0 0.00 0.00 0.00 69 1016.3
20260831202306 84 300 4.0 8.0 0.00 0.00 0.00 69 1016.3
20260831202203 84 299 4.0 8.0 0.00 0.00 0.00 69 1016.3
20260831202103 84 298 4.0 8.0 0.00 0.00 0.00 70 1016.2
20260831202003 84 298 3.0 8.0 0.00 0.00 0.00 70 1016.3
20260831201903 84 297 3.0 9.0 0.00 0.00 0.00 69 1016.2
20260831201803 84 295 3.0 9.0 0.00 0.00 0.00 70 1016.2
20260831201703 84 295 4.0 9.0 0.00 0.00 0.00 70 1016.3
20260831201603 83 295 4.0 9.0 0.00 0.00 0.00 70 1016.2
20260831201505 84 295 4.0 9.0 0.00 0.00 0.00 70 1016.4
20260831201403 83 294 4.0 9.0 0.00 0.00 0.00 70 1016.4
20260831201303 83 294 4.0 9.0 0.00 0.00 0.00 70 1016.4
20260831201203 83 295 4.0 9.0 0.00 0.00 0.00 70 1016.4
20260831201103 83 294 4.0 9.0 0.00 0.00 0.00 70 1016.3
20260831201003 84 294 4.0 9.0 0.00 0.00 0.00 70 1016.4
20260831200903 84 294 4.0 9.0 0.00 0.00 0.00 70 1016.3
20260831200803 84 296 4.0 9.0 0.00 0.00 0.00 70 1016.4
20260831200703 83 298 4.0 9.0 0.00 0.00 0.00 70 1016.4
20260831200603 84 297 4.0 9.0 0.00 0.00 0.00 70 1016.3
20260831200503 84 297 4.0 9.0 0.00 0.00 0.00 70 1016.4
20260831200403 84 300 4.0 9.0 0.00 0.00 0.00 70 1016.3
20260831200303 84 300 4.0 8.0 0.00 0.00 0.00 70 1016.3
20260831200203 84 298 4.0 8.0 0.00 0.00 0.00 70 1016.4
20260831200103 84 299 4.0 8.0 0.00 0.00 0.00 70 1016.4
20260831200003 84 298 4.0 8.0 0.00 0.00 0.00 70 1016.3
20260831195903 84 297 4.0 8.0 0.00 0.00 0.00 70 1016.3
20260831195803 84 296 4.0 8.0 0.00 0.00 0.00 70 1016.3
20260831195703 84 296 4.0 8.0 0.00 0.00 0.00 70 1016.2
20260831195603 84 296 4.0 8.0 0.00 0.00 0.00 70 1016.3
20260831195503 84 295 4.0 8.0 0.00 0.00 0.00 70 1016.2
20260831195403 84 294 4.0 8.0 0.00 0.00 0.00 70 1016.2
20260831195306 84 294 3.0 8.0 0.00 0.00 0.00 70 1016.2
20260831195203 84 295 3.0 8.0 0.00 0.00 0.00 70 1016.2
20260831195103 84 295 3.0 8.0 0.00 0.00 0.00 70 1016.1
20260831195003 84 296 3.0 8.0 0.00 0.00 0.00 70 1016.1
20260831194903 84 296 3.0 8.0 0.00 0.00 0.00 70 1016.1
20260831194803 84 298 3.0 8.0 0.00 0.00 0.00 70 1016.1
20260831194703 84 298 3.0 8.0 0.00 0.00 0.00 70 1016.1
20260831194603 84 298 3.0 6.0 0.00 0.00 0.00 70 1016.2
20260831194503 84 299 3.0 6.0 0.00 0.00 0.00 70 1016.2
20260831194403 84 300 3.0 6.0 0.00 0.00 0.00 70 1016.2
20260831194303 84 301 3.0 6.0 0.00 0.00 0.00 70 1016.2
20260831194203 84 301 4.0 7.0 0.00 0.00 0.00 70 1016.2
20260831194103 84 301 4.0 7.0 0.00 0.00 0.00 70 1016.2
20260831194003 84 300 4.0 7.0 0.00 0.00 0.00 70 1016.1
20260831193903 84 299 4.0 7.0 0.00 0.00 0.00 70 1016.2
20260831193803 84 299 4.0 7.0 0.00 0.00 0.00 70 1016.0
20260831193703 84 299 4.0 7.0 0.00 0.00 0.00 70 1016.1
20260831193603 84 300 4.0 7.0 0.00 0.00 0.00 70 1016.1
20260831193503 84 299 4.0 7.0 0.00 0.00 0.00 70 1016.1
20260831193403 84 298 3.0 7.0 0.00 0.00 0.00 70 1016.1
20260831193303 84 297 3.0 7.0 0.00 0.00 0.00 70 1016.1
20260831193203 84 297 3.0 6.0 0.00 0.00 0.00 70 1016.1
20260831193103 84 296 3.0 6.0 0.00 0.00 0.00 69 1016.1
20260831193003 84 297 2.0 6.0 0.00 0.00 0.00 69 1016.0
20260831192903 84 299 2.0 6.0 0.00 0.00 0.00 70 1016.1
20260831192803 84 297 2.0 6.0 0.00 0.00 0.00 70 1016.1
20260831192703 84 296 2.0 6.0 0.00 0.00 0.00 69 1016.0
20260831192603 84 294 2.0 6.0 0.00 0.00 0.00 70 1016.1
20260831192503 84 294 2.0 6.0 0.00 0.00 0.00 70 1016.0
20260831192403 84 294 2.0 6.0 0.00 0.00 0.00 70 1016.0
20260831192305 84 295 2.0 6.0 0.00 0.00 0.00 70 1016.1
20260831192203 84 294 2.0 6.0 0.00 0.00 0.00 70 1016.0
20260831192103 84 294 2.0 6.0 0.00 0.00 0.00 70 1016.0
20260831192003 84 294 2.0 6.0 0.00 0.00 0.00 70 1016.0
20260831191903 84 293 2.0 6.0 0.00 0.00 0.00 70 1016.0
20260831191803 84 295 2.0 6.0 0.00 0.00 0.00 70 1016.1
20260831191703 84 296 2.0 6.0 0.00 0.00 0.00 70 1016.1
20260831191603 84 298 2.0 6.0 0.00 0.00 0.00 70 1015.9
20260831191503 84 298 2.0 6.0 0.00 0.00 0.00 70 1016.0
20260831191403 84 297 2.0 6.0 0.00 0.00 0.00 70 1016.1
20260831191303 84 297 2.0 6.0 0.00 0.00 0.00 70 1016.0
20260831191204 84 297 2.0 6.0 0.00 0.00 0.00 70 1016.0
20260831191104 84 296 3.0 8.0 0.00 0.00 0.00 70 1015.9
20260831191004 84 298 3.0 8.0 0.00 0.00 0.00 70 1015.9
20260831190904 84 299 3.0 8.0 0.00 0.00 0.00 70 1016.0
20260831190804 84 298 3.0 8.0 0.00 0.00 0.00 70 1016.0
20260831190704 84 298 3.0 8.0 0.00 0.00 0.00 70 1016.0
20260831190604 84 298 3.0 8.0 0.00 0.00 0.00 70 1016.0
20260831190504 84 298 3.0 8.0 0.00 0.00 0.00 70 1016.0
20260831190404 84 298 3.0 8.0 0.00 0.00 0.00 70 1015.9
20260831190304 84 299 3.0 8.0 0.00 0.00 0.00 70 1015.9
20260831190204 84 299 3.0 8.0 0.00 0.00 0.00 70 1016.0
20260831190104 84 299 3.0 7.0 0.00 0.00 0.00 69 1016.0
20260831190004 84 298 3.0 7.0 0.00 0.00 0.00 70 1016.0
20260831185904 84 298 3.0 7.0 0.00 0.00 0.00 70 1015.9
20260831185804 84 298 3.0 7.0 0.00 0.00 0.00 70 1016.0
20260831185704 84 298 2.0 7.0 0.00 0.00 0.00 70 1016.2
20260831185604 84 298 2.0 7.0 0.00 0.00 0.00 69 1016.1
20260831185504 84 299 2.0 7.0 0.00 0.00 0.00 69 1016.1
20260831185404 84 298 2.0 7.0 0.00 0.00 0.00 69 1016.2
20260831185306 84 299 3.0 7.0 0.00 0.00 0.00 69 1016.1
20260831185204 84 299 3.0 7.0 0.00 0.00 0.00 69 1016.2
20260831185104 84 299 2.0 7.0 0.00 0.00 0.00 69 1016.2
20260831185004 84 299 2.0 7.0 0.00 0.00 0.00 69 1016.2
20260831184904 84 298 2.0 7.0 0.00 0.00 0.00 69 1016.2
20260831184804 84 298 3.0 7.0 0.00 0.00 0.00 69 1016.2
20260831184704 84 297 3.0 7.0 0.00 0.00 0.00 69 1016.1
20260831184604 84 297 2.0 7.0 0.00 0.00 0.00 69 1016.2
20260831184504 84 296 2.0 7.0 0.00 0.00 0.00 69 1016.2
20260831184404 84 300 2.0 7.0 0.00 0.00 0.00 69 1016.3
20260831184304 84 300 2.0 7.0 0.00 0.00 0.00 69 1016.2
20260831184204 84 300 2.0 7.0 0.00 0.00 0.00 69 1016.1
20260831184104 84 298 3.0 7.0 0.00 0.00 0.00 69 1016.1
20260831184004 84 300 3.0 7.0 0.00 0.00 0.00 69 1016.1
20260831183904 84 299 3.0 7.0 0.00 0.00 0.00 69 1016.1
20260831183804 84 299 3.0 7.0 0.00 0.00 0.00 69 1016.1
20260831183704 84 299 3.0 7.0 0.00 0.00 0.00 69 1016.0
20260831183604 84 299 4.0 7.0 0.00 0.00 0.00 69 1015.9
20260831183504 84 300 4.0 7.0 0.00 0.00 0.00 69 1016.0
20260831183404 84 298 4.0 7.0 0.00 0.00 0.00 69 1016.0
20260831183304 84 297 4.0 7.0 0.00 0.00 0.00 69 1016.0
20260831183204 84 297 4.0 7.0 0.00 0.00 0.00 69 1016.0
20260831183104 84 298 4.0 8.0 0.00 0.00 0.00 69 1016.0
20260831183004 84 297 4.0 8.0 0.00 0.00 0.00 69 1016.0
20260831182904 84 298 4.0 8.0 0.00 0.00 0.00 69 1015.9
20260831182804 84 299 4.0 8.0 0.00 0.00 0.00 69 1016.0
20260831182704 84 299 4.0 8.0 0.00 0.00 0.00 69 1015.9
20260831182604 84 300 4.0 8.0 0.00 0.00 0.00 69 1015.9
20260831182504 84 299 4.0 8.0 0.00 0.00 0.00 69 1015.8
20260831182404 84 300 4.0 8.0 0.00 0.00 0.00 70 1016.0
20260831182305 84 300 4.0 8.0 0.00 0.00 0.00 69 1015.9
20260831182204 84 300 4.0 8.0 0.00 0.00 0.00 69 1015.9
20260831182104 84 299 4.0 8.0 0.00 0.00 0.00 69 1015.9
20260831182004 84 299 4.0 10.0 0.00 0.00 0.00 69 1015.8
20260831181904 84 299 4.0 10.0 0.00 0.00 0.00 69 1015.8
20260831181804 84 299 4.0 10.0 0.00 0.00 0.00 69 1015.7
20260831181704 84 297 4.0 10.0 0.00 0.00 0.00 69 1015.7
20260831181604 84 298 4.0 10.0 0.00 0.00 0.00 69 1015.6
20260831181504 84 298 4.0 10.0 0.00 0.00 0.00 69 1015.8
20260831181404 85 298 5.0 10.0 0.00 0.00 0.00 69 1015.7
20260831181304 85 298 5.0 10.0 0.00 0.00 0.00 69 1015.7
20260831181204 85 298 5.0 10.0 0.00 0.00 0.00 69 1015.7
20260831181104 85 298 5.0 10.0 0.00 0.00 0.00 69 1015.7
20260831181004 85 299 4.0 8.0 0.00 0.00 0.00 69 1015.6
20260831180904 85 298 4.0 8.0 0.00 0.00 0.00 69 1015.7
20260831180803 85 298 4.0 8.0 0.00 0.00 0.00 69 1015.7
20260831180704 85 299 4.0 8.0 0.00 0.00 0.00 69 1015.7
20260831180604 85 298 4.0 8.0 0.00 0.00 0.00 68 1015.7
20260831180504 85 299 3.0 8.0 0.00 0.00 0.00 68 1015.8
20260831180403 85 299 3.0 8.0 0.00 0.00 0.00 68 1015.7
20260831180303 85 299 3.0 8.0 0.00 0.00 0.00 68 1015.8
20260831180204 85 300 3.0 8.0 0.00 0.00 0.00 68 1015.7
20260831180103 85 300 3.0 8.0 0.00 0.00 0.00 68 1015.7
20260831180004 85 299 3.0 8.0 0.00 0.00 0.00 68 1015.8
20260831175903 85 300 3.0 8.0 0.00 0.00 0.00 68 1015.8
20260831175803 85 300 3.0 8.0 0.00 0.00 0.00 68 1015.7
20260831175703 85 300 4.0 8.0 0.00 0.00 0.00 68 1015.7
20260831175603 85 299 4.0 8.0 0.00 0.00 0.00 68 1015.8
20260831175503 85 298 4.0 8.0 0.00 0.00 0.00 68 1015.8
20260831175403 85 299 4.0 8.0 0.00 0.00 0.00 68 1015.7
20260831175306 85 298 4.0 8.0 0.00 0.00 0.00 68 1015.7
20260831175203 85 297 4.0 8.0 0.00 0.00 0.00 68 1015.6
20260831175103 85 297 4.0 8.0 0.00 0.00 0.00 68 1015.7
20260831175003 85 297 4.0 8.0 0.00 0.00 0.00 68 1015.7
20260831174903 85 295 4.0 10.0 0.00 0.00 0.00 68 1015.7
20260831174803 85 296 4.0 10.0 0.00 0.00 0.00 68 1015.6
20260831174703 85 296 4.0 10.0 0.00 0.00 0.00 68 1015.7
20260831174603 85 295 4.0 14.0 0.00 0.00 0.00 68 1015.7
20260831174503 85 295 4.0 14.0 0.00 0.00 0.00 68 1015.6
20260831174403 85 295 4.0 14.0 0.00 0.00 0.00 68 1015.6
20260831174303 85 295 4.0 14.0 0.00 0.00 0.00 68 1015.5
20260831174203 85 296 4.0 14.0 0.00 0.00 0.00 68 1015.5
20260831174103 85 296 3.0 14.0 0.00 0.00 0.00 68 1015.6
20260831174003 85 295 3.0 14.0 0.00 0.00 0.00 68 1015.6
20260831173903 85 298 3.0 14.0 0.00 0.00 0.00 68 1015.6
20260831173803 85 298 3.0 14.0 0.00 0.00 0.00 68 1015.6
20260831173703 85 297 3.0 14.0 0.00 0.00 0.00 68 1015.6
20260831173603 85 300 3.0 10.0 0.00 0.00 0.00 67 1015.7
20260831173503 85 299 3.0 12.0 0.00 0.00 0.00 67 1015.7
20260831173403 85 298 3.0 12.0 0.00 0.00 0.00 67 1015.7
20260831173303 85 300 4.0 12.0 0.00 0.00 0.00 67 1015.7
20260831173203 85 299 4.0 12.0 0.00 0.00 0.00 67 1015.6
20260831173103 85 299 4.0 12.0 0.00 0.00 0.00 67 1015.7
20260831173004 85 301 4.0 12.0 0.00 0.00 0.00 67 1015.7
20260831172903 85 299 5.0 12.0 0.00 0.00 0.00 67 1015.6
20260831172803 85 300 5.0 12.0 0.00 0.00 0.00 67 1015.6
20260831172703 85 300 5.0 12.0 0.00 0.00 0.00 67 1015.6
20260831172603 85 298 5.0 12.0 0.00 0.00 0.00 67 1015.6
20260831172503 85 299 5.0 11.0 0.00 0.00 0.00 67 1015.5
20260831172403 85 298 5.0 11.0 0.00 0.00 0.00 67 1015.5
20260831172306 86 296 5.0 11.0 0.00 0.00 0.00 67 1015.5
20260831172203 86 297 5.0 11.0 0.00 0.00 0.00 66 1015.5
20260831172103 86 297 5.0 11.0 0.00 0.00 0.00 67 1015.6
20260831172003 86 295 5.0 11.0 0.00 0.00 0.00 67 1015.6
20260831171903 86 295 4.0 11.0 0.00 0.00 0.00 67 1015.6
20260831171803 86 294 4.0 9.0 0.00 0.00 0.00 67 1015.6
20260831171703 86 293 4.0 11.0 0.00 0.00 0.00 67 1015.7
20260831171603 86 295 4.0 11.0 0.00 0.00 0.00 67 1015.8
20260831171503 86 294 4.0 11.0 0.00 0.00 0.00 67 1015.8
20260831171403 86 295 4.0 11.0 0.00 0.00 0.00 67 1015.8
20260831171303 86 296 4.0 11.0 0.00 0.00 0.00 67 1015.8
20260831171203 86 296 4.0 11.0 0.00 0.00 0.00 67 1015.8
20260831171103 86 296 4.0 11.0 0.00 0.00 0.00 67 1015.8
20260831171003 86 296 4.0 11.0 0.00 0.00 0.00 67 1015.8
20260831170903 86 295 5.0 11.0 0.00 0.00 0.00 66 1015.8
20260831170803 86 295 5.0 11.0 0.00 0.00 0.00 66 1015.8
20260831170703 86 295 5.0 10.0 0.00 0.00 0.00 66 1015.8
20260831170603 86 294 5.0 10.0 0.00 0.00 0.00 66 1015.8
20260831170504 86 294 5.0 10.0 0.00 0.00 0.00 66 1015.7
20260831170403 86 295 5.0 10.0 0.00 0.00 0.00 66 1015.7
20260831170303 86 295 5.0 10.0 0.00 0.00 0.00 66 1015.7
20260831170203 86 296 5.0 10.0 0.00 0.00 0.00 66 1015.7
20260831170003 86 297 5.0 10.0 0.00 0.00 0.00 66 1015.8
20260831165903 86 298 4.0 10.0 0.00 0.00 0.00 66 1015.8
20260831165803 86 299 4.0 10.0 0.00 0.00 0.00 66 1015.7
20260831165703 86 298 3.0 10.0 0.00 0.00 0.00 66 1015.6
20260831165603 86 298 3.0 10.0 0.00 0.00 0.00 66 1015.6
20260831165503 86 299 3.0 10.0 0.00 0.00 0.00 66 1015.6
20260831165403 87 298 3.0 8.0 0.00 0.00 0.00 66 1015.7
20260831165305 86 299 3.0 8.0 0.00 0.00 0.00 66 1015.7
20260831165203 86 300 3.0 9.0 0.00 0.00 0.00 66 1015.7
20260831165103 86 299 3.0 10.0 0.00 0.00 0.00 66 1015.7
20260831165003 87 296 3.0 12.0 0.00 0.00 0.00 65 1015.6
20260831164903 87 297 4.0 12.0 0.00 0.00 0.00 66 1015.6
20260831164803 87 298 4.0 12.0 0.00 0.00 0.00 66 1015.6
20260831164703 87 299 4.0 12.0 0.00 0.00 0.00 65 1015.7
20260831164603 87 300 4.0 12.0 0.00 0.00 0.00 65 1015.6
20260831164503 87 300 5.0 12.0 0.00 0.00 0.00 65 1015.6
20260831164403 87 299 5.0 12.0 0.00 0.00 0.00 65 1015.6
20260831164303 87 299 5.0 12.0 0.00 0.00 0.00 66 1015.6
20260831164203 87 300 5.0 12.0 0.00 0.00 0.00 65 1015.7
20260831164103 87 299 5.0 12.0 0.00 0.00 0.00 65 1015.6
20260831164003 87 300 4.0 10.0 0.00 0.00 0.00 65 1015.6
20260831163903 87 299 4.0 10.0 0.00 0.00 0.00 65 1015.6
20260831163803 87 299 3.0 10.0 0.00 0.00 0.00 64 1015.6
20260831163703 87 299 3.0 10.0 0.00 0.00 0.00 64 1015.6
20260831163603 87 298 3.0 9.0 0.00 0.00 0.00 65 1015.6
20260831163503 87 297 3.0 8.0 0.00 0.00 0.00 65 1015.5
20260831163403 87 297 3.0 8.0 0.00 0.00 0.00 65 1015.6
20260831163303 87 297 3.0 8.0 0.00 0.00 0.00 65 1015.5
20260831163203 87 297 3.0 9.0 0.00 0.00 0.00 65 1015.6
20260831163103 87 297 3.0 9.0 0.00 0.00 0.00 65 1015.7
20260831163003 87 297 3.0 9.0 0.00 0.00 0.00 65 1015.6
20260831162903 87 298 3.0 9.0 0.00 0.00 0.00 65 1015.6
20260831162803 87 298 3.0 9.0 0.00 0.00 0.00 65 1015.7
20260831162703 87 299 3.0 9.0 0.00 0.00 0.00 64 1015.7
20260831162603 87 300 4.0 9.0 0.00 0.00 0.00 64 1015.7
20260831162503 87 300 4.0 9.0 0.00 0.00 0.00 64 1015.8
20260831162403 87 301 3.0 9.0 0.00 0.00 0.00 64 1015.7
20260831162305 87 302 4.0 10.0 0.00 0.00 0.00 63 1015.8
20260831162203 87 300 4.0 10.0 0.00 0.00 0.00 63 1015.8
20260831162103 87 298 4.0 10.0 0.00 0.00 0.00 63 1015.8
20260831162004 87 299 4.0 10.0 0.00 0.00 0.00 63 1015.7
20260831161904 87 300 4.0 10.0 0.00 0.00 0.00 62 1015.8
20260831161804 87 300 4.0 12.0 0.00 0.00 0.00 62 1015.7
20260831161704 87 299 4.0 12.0 0.00 0.00 0.00 62 1015.7
20260831161604 87 298 4.0 12.0 0.00 0.00 0.00 62 1015.7
20260831161504 87 299 4.0 12.0 0.00 0.00 0.00 62 1015.6
20260831161404 87 298 5.0 12.0 0.00 0.00 0.00 62 1015.6
20260831161304 87 299 5.0 12.0 0.00 0.00 0.00 62 1015.6
20260831161204 87 300 5.0 12.0 0.00 0.00 0.00 62 1015.6
20260831161104 87 302 5.0 12.0 0.00 0.00 0.00 62 1015.6
20260831161004 87 302 5.0 12.0 0.00 0.00 0.00 62 1015.6
20260831160904 87 301 5.0 12.0 0.00 0.00 0.00 62 1015.7
20260831160804 87 300 6.0 11.0 0.00 0.00 0.00 62 1015.8
20260831160704 87 301 6.0 11.0 0.00 0.00 0.00 61 1015.8
20260831160604 87 299 6.0 11.0 0.00 0.00 0.00 61 1015.8
20260831160504 87 300 6.0 11.0 0.00 0.00 0.00 61 1015.7
20260831160404 87 300 6.0 11.0 0.00 0.00 0.00 61 1015.7
20260831160304 87 299 5.0 11.0 0.00 0.00 0.00 61 1015.7
20260831160204 87 299 5.0 11.0 0.00 0.00 0.00 61 1015.6
20260831160104 88 299 5.0 11.0 0.00 0.00 0.00 61 1015.6
20260831160004 88 298 5.0 11.0 0.00 0.00 0.00 61 1015.6
20260831155904 88 298 5.0 11.0 0.00 0.00 0.00 61 1015.6
20260831155804 88 299 5.0 11.0 0.00 0.00 0.00 60 1015.6
20260831155704 88 298 5.0 11.0 0.00 0.00 0.00 60 1015.6
20260831155604 88 300 5.0 10.0 0.00 0.00 0.00 60 1015.6
20260831155504 88 297 5.0 14.0 0.00 0.00 0.00 60 1015.5
20260831155404 88 297 5.0 14.0 0.00 0.00 0.00 60 1015.7
20260831155306 88 296 5.0 14.0 0.00 0.00 0.00 60 1015.7
20260831155204 88 297 5.0 14.0 0.00 0.00 0.00 60 1015.8
20260831155104 88 298 5.0 14.0 0.00 0.00 0.00 60 1015.8
20260831155004 88 297 5.0 14.0 0.00 0.00 0.00 61 1015.8
20260831154904 88 297 5.0 14.0 0.00 0.00 0.00 60 1015.8
20260831154804 88 297 5.0 14.0 0.00 0.00 0.00 61 1015.8
20260831154704 88 297 5.0 14.0 0.00 0.00 0.00 60 1015.8
20260831154604 88 296 5.0 14.0 0.00 0.00 0.00 60 1015.8
20260831154504 88 298 5.0 9.0 0.00 0.00 0.00 60 1015.7
20260831154404 88 299 4.0 9.0 0.00 0.00 0.00 60 1015.7
20260831154304 88 297 4.0 9.0 0.00 0.00 0.00 60 1015.7
20260831154204 88 298 4.0 9.0 0.00 0.00 0.00 60 1015.7
20260831154104 88 296 4.0 9.0 0.00 0.00 0.00 61 1015.6
20260831154004 88 298 4.0 10.0 0.00 0.00 0.00 60 1015.7
20260831153904 88 300 4.0 10.0 0.00 0.00 0.00 60 1015.6
20260831153804 88 300 4.0 10.0 0.00 0.00 0.00 60 1015.7
20260831153704 88 300 4.0 10.0 0.00 0.00 0.00 60 1015.8
20260831153604 89 300 4.0 10.0 0.00 0.00 0.00 60 1015.7
20260831153504 89 301 4.0 10.0 0.00 0.00 0.00 60 1015.6
20260831153404 89 301 4.0 10.0 0.00 0.00 0.00 59 1015.6
20260831153304 89 302 4.0 10.0 0.00 0.00 0.00 59 1015.6
20260831153204 89 303 4.0 10.0 0.00 0.00 0.00 59 1015.6
20260831153104 89 303 4.0 10.0 0.00 0.00 0.00 59 1015.6
20260831153004 89 304 4.0 11.0 0.00 0.00 0.00 59 1015.7
20260831152903 89 303 3.0 11.0 0.00 0.00 0.00 58 1015.6
20260831152804 89 303 3.0 11.0 0.00 0.00 0.00 58 1015.5
20260831152703 89 302 4.0 11.0 0.00 0.00 0.00 58 1015.5
20260831152604 89 303 4.0 11.0 0.00 0.00 0.00 58 1015.5
20260831152504 89 303 4.0 11.0 0.00 0.00 0.00 58 1015.5
20260831152403 89 303 4.0 11.0 0.00 0.00 0.00 57 1015.5
20260831152306 89 303 4.0 11.0 0.00 0.00 0.00 57 1015.5
20260831152204 89 301 5.0 11.0 0.00 0.00 0.00 57 1015.5
20260831152103 89 301 4.0 11.0 0.00 0.00 0.00 57 1015.5
20260831152003 89 301 4.0 11.0 0.00 0.00 0.00 57 1015.5
20260831151904 89 300 4.0 11.0 0.00 0.00 0.00 57 1015.5
20260831151804 89 300 4.0 11.0 0.00 0.00 0.00 57 1015.4
20260831151703 89 301 3.0 12.0 0.00 0.00 0.00 57 1015.4
20260831151604 89 300 3.0 12.0 0.00 0.00 0.00 57 1015.5
20260831151503 89 299 3.0 12.0 0.00 0.00 0.00 58 1015.5
20260831151403 89 298 3.0 12.0 0.00 0.00 0.00 57 1015.5
20260831151303 89 299 3.0 12.0 0.00 0.00 0.00 57 1015.4
20260831151203 89 300 3.0 12.0 0.00 0.00 0.00 57 1015.4
20260831151103 89 300 3.0 12.0 0.00 0.00 0.00 57 1015.5
20260831151003 89 299 3.0 12.0 0.00 0.00 0.00 57 1015.4
20260831150903 89 300 4.0 12.0 0.00 0.00 0.00 57 1015.4
20260831150803 89 300 4.0 12.0 0.00 0.00 0.00 57 1015.4
20260831150703 89 300 3.0 9.0 0.00 0.00 0.00 57 1015.4
20260831150603 89 300 3.0 9.0 0.00 0.00 0.00 57 1015.4
20260831150503 89 301 3.0 9.0 0.00 0.00 0.00 57 1015.5
20260831150404 89 299 3.0 11.0 0.00 0.00 0.00 57 1015.4
20260831150303 89 298 4.0 11.0 0.00 0.00 0.00 57 1015.4
20260831150203 89 296 4.0 11.0 0.00 0.00 0.00 57 1015.4
20260831150103 89 297 4.0 11.0 0.00 0.00 0.00 57 1015.3
20260831150004 89 297 4.0 11.0 0.00 0.00 0.00 57 1015.5
20260831145903 89 297 5.0 11.0 0.00 0.00 0.00 57 1015.4
20260831145803 89 297 5.0 11.0 0.00 0.00 0.00 57 1015.4
20260831145703 89 297 5.0 11.0 0.00 0.00 0.00 57 1015.5
20260831145603 89 299 6.0 11.0 0.00 0.00 0.00 57 1015.3
20260831145503 89 299 6.0 11.0 0.00 0.00 0.00 57 1015.5
20260831145403 89 300 6.0 10.0 0.00 0.00 0.00 57 1015.5
20260831145306 89 300 6.0 10.0 0.00 0.00 0.00 57 1015.4
20260831145203 89 299 6.0 10.0 0.00 0.00 0.00 57 1015.4
20260831145103 89 299 6.0 10.0 0.00 0.00 0.00 57 1015.4
20260831145003 90 299 5.0 10.0 0.00 0.00 0.00 56 1015.4
20260831144903 34 298 5.0 10.0 0.00 0.00 0.00 56 1015.3
20260831144803 90 298 5.0 10.0 0.00 0.00 0.00 56 1015.3
20260831144703 90 300 5.0 11.0 0.00 0.00 0.00 56 1015.3
20260831144603 90 298 5.0 11.0 0.00 0.00 0.00 56 1015.3
20260831144503 90 296 5.0 11.0 0.00 0.00 0.00 56 1015.4
20260831144403 90 297 5.0 11.0 0.00 0.00 0.00 56 1015.4
20260831144303 90 297 4.0 11.0 0.00 0.00 0.00 56 1015.4
20260831144203 90 297 4.0 11.0 0.00 0.00 0.00 55 1015.4
20260831144103 90 297 4.0 11.0 0.00 0.00 0.00 55 1015.3
20260831144003 90 299 4.0 15.0 0.00 0.00 0.00 55 1015.4
20260831143903 90 299 5.0 15.0 0.00 0.00 0.00 55 1015.4
20260831143803 90 300 4.0 15.0 0.00 0.00 0.00 55 1015.4
20260831143703 90 300 4.0 15.0 0.00 0.00 0.00 55 1015.5
20260831143603 90 301 4.0 15.0 0.00 0.00 0.00 55 1015.5
20260831143503 90 300 4.0 15.0 0.00 0.00 0.00 55 1015.5
20260831143403 90 300 4.0 15.0 0.00 0.00 0.00 55 1015.4
20260831143303 90 301 4.0 15.0 0.00 0.00 0.00 55 1015.5
20260831143203 90 303 4.0 15.0 0.00 0.00 0.00 54 1015.6
20260831143103 90 303 3.0 15.0 0.00 0.00 0.00 54 1015.6
20260831143003 90 304 3.0 7.0 0.00 0.00 0.00 53 1015.5
20260831142903 90 303 3.0 7.0 0.00 0.00 0.00 53 1015.5
20260831142803 90 303 3.0 7.0 0.00 0.00 0.00 53 1015.5
20260831142703 90 302 3.0 9.0 0.00 0.00 0.00 53 1015.5
20260831142603 91 304 3.0 9.0 0.00 0.00 0.00 53 1015.5
20260831142503 91 307 3.0 9.0 0.00 0.00 0.00 53 1015.6
20260831142403 91 306 3.0 9.0 0.00 0.00 0.00 53 1015.5
20260831142306 91 306 3.0 9.0 0.00 0.00 0.00 53 1015.6
20260831142203 91 303 3.0 9.0 0.00 0.00 0.00 54 1015.5
20260831142103 91 301 3.0 9.0 0.00 0.00 0.00 54 1015.5
20260831142003 91 300 3.0 9.0 0.00 0.00 0.00 53 1015.5
20260831141903 90 300 3.0 9.0 0.00 0.00 0.00 53 1015.5
20260831141803 91 301 4.0 9.0 0.00 0.00 0.00 53 1015.5
20260831141703 91 301 4.0 9.0 0.00 0.00 0.00 54 1015.5
20260831141603 90 298 3.0 9.0 0.00 0.00 0.00 54 1015.5
20260831141503 90 298 3.0 9.0 0.00 0.00 0.00 54 1015.5
20260831141403 90 299 3.0 9.0 0.00 0.00 0.00 54 1015.5
20260831141303 91 300 3.0 9.0 0.00 0.00 0.00 54 1015.6
20260831141203 91 301 3.0 9.0 0.00 0.00 0.00 54 1015.6
20260831141103 91 300 3.0 9.0 0.00 0.00 0.00 54 1015.5
20260831141003 91 299 3.0 9.0 0.00 0.00 0.00 54 1015.6
20260831140903 91 300 3.0 9.0 0.00 0.00 0.00 53 1015.5
20260831140803 91 299 3.0 9.0 0.00 0.00 0.00 53 1015.6
20260831140703 91 300 3.0 11.0 0.00 0.00 0.00 53 1015.5
20260831140603 91 301 3.0 11.0 0.00 0.00 0.00 53 1015.6
20260831140503 91 301 3.0 11.0 0.00 0.00 0.00 53 1015.6
20260831140403 91 299 3.0 11.0 0.00 0.00 0.00 53 1015.5
20260831140303 91 299 4.0 11.0 0.00 0.00 0.00 53 1015.7
20260831140203 91 299 4.0 11.0 0.00 0.00 0.00 53 1015.6
20260831140003 91 300 4.0 11.0 0.00 0.00 0.00 53 1015.6
20260831135903 91 299 4.0 11.0 0.00 0.00 0.00 53 1015.6
20260831135803 91 300 3.0 11.0 0.00 0.00 0.00 53 1015.6
20260831135703 91 300 3.0 8.0 0.00 0.00 0.00 53 1015.5
20260831135603 91 298 3.0 8.0 0.00 0.00 0.00 53 1015.6
20260831135503 91 298 3.0 8.0 0.00 0.00 0.00 52 1015.6
20260831135403 91 298 2.0 8.0 0.00 0.00 0.00 51 1015.6
20260831135306 91 299 2.0 8.0 0.00 0.00 0.00 51 1015.6
20260831135203 91 302 2.0 8.0 0.00 0.00 0.00 51 1015.5
20260831135103 91 301 2.0 8.0 0.00 0.00 0.00 51 1015.6
20260831135003 91 305 2.0 7.0 0.00 0.00 0.00 51 1015.6
20260831134903 91 308 2.0 9.0 0.00 0.00 0.00 51 1015.6
20260831134803 91 309 2.0 9.0 0.00 0.00 0.00 51 1015.6
20260831134703 91 308 2.0 9.0 0.00 0.00 0.00 51 1015.6
20260831134603 91 307 2.0 9.0 0.00 0.00 0.00 51 1015.5
20260831134503 91 306 3.0 10.0 0.00 0.00 0.00 51 1015.5
20260831134403 91 305 3.0 10.0 0.00 0.00 0.00 50 1015.6
20260831134303 91 303 3.0 10.0 0.00 0.00 0.00 50 1015.5
20260831134203 91 302 4.0 10.0 0.00 0.00 0.00 50 1015.5
20260831134104 91 303 4.0 10.0 0.00 0.00 0.00 51 1015.5
20260831134004 91 301 5.0 10.0 0.00 0.00 0.00 51 1015.5
20260831133904 91 300 5.0 10.0 0.00 0.00 0.00 51 1015.5
20260831133804 91 300 4.0 10.0 0.00 0.00 0.00 51 1015.5
20260831133704 91 300 4.0 10.0 0.00 0.00 0.00 51 1015.5
20260831133604 91 300 4.0 10.0 0.00 0.00 0.00 51 1015.5
20260831133504 92 299 4.0 10.0 0.00 0.00 0.00 50 1015.6
20260831133404 92 300 4.0 11.0 0.00 0.00 0.00 50 1015.6
20260831133304 92 300 4.0 11.0 0.00 0.00 0.00 50 1015.5
20260831133204 92 300 4.0 11.0 0.00 0.00 0.00 49 1015.5
20260831133104 92 299 4.0 11.0 0.00 0.00 0.00 48 1015.5
20260831133004 92 300 3.0 11.0 0.00 0.00 0.00 48 1015.6
20260831132904 92 300 3.0 11.0 0.00 0.00 0.00 48 1015.6
20260831132804 92 300 3.0 11.0 0.00 0.00 0.00 48 1015.6
20260831132704 92 299 3.0 11.0 0.00 0.00 0.00 47 1015.5
20260831132604 92 298 3.0 11.0 0.00 0.00 0.00 47 1015.5
20260831132504 92 299 3.0 11.0 0.00 0.00 0.00 47 1015.6
20260831132404 92 298 3.0 8.0 0.00 0.00 0.00 46 1015.5
20260831132306 92 299 3.0 8.0 0.00 0.00 0.00 45 1015.5
20260831132204 92 299 3.0 8.0 0.00 0.00 0.00 45 1015.5
20260831132104 92 298 3.0 8.0 0.00 0.00 0.00 45 1015.6
20260831132004 92 298 3.0 8.0 0.00 0.00 0.00 45 1015.6
20260831131904 92 298 2.0 8.0 0.00 0.00 0.00 46 1015.6
20260831131804 92 297 3.0 9.0 0.00 0.00 0.00 46 1015.6
20260831131704 92 299 3.0 10.0 0.00 0.00 0.00 46 1015.5
20260831131604 92 300 3.0 10.0 0.00 0.00 0.00 46 1015.5
20260831131504 92 301 3.0 10.0 0.00 0.00 0.00 45 1015.5
20260831131404 92 302 3.0 10.0 0.00 0.00 0.00 45 1015.5
20260831131304 92 301 4.0 10.0 0.00 0.00 0.00 44 1015.6
20260831131204 92 300 3.0 10.0 0.00 0.00 0.00 44 1015.5
20260831131104 93 300 3.0 10.0 0.00 0.00 0.00 44 1015.5
20260831131004 93 302 3.0 10.0 0.00 0.00 0.00 45 1015.7
20260831130904 93 302 4.0 10.0 0.00 0.00 0.00 45 1015.7
20260831130804 93 304 3.0 10.0 0.00 0.00 0.00 44 1015.7
20260831130704 93 302 3.0 7.0 0.00 0.00 0.00 44 1015.8
20260831130604 93 301 3.0 7.0 0.00 0.00 0.00 44 1015.7
20260831130504 93 300 3.0 7.0 0.00 0.00 0.00 44 1015.6
20260831130404 93 299 3.0 7.0 0.00 0.00 0.00 44 1015.6
20260831130304 93 301 3.0 7.0 0.00 0.00 0.00 43 1015.5
20260831130204 93 301 3.0 7.0 0.00 0.00 0.00 44 1015.5
20260831130104 93 301 3.0 7.0 0.00 0.00 0.00 43 1015.6
20260831130004 93 299 2.0 7.0 0.00 0.00 0.00 43 1015.5
20260831125904 93 297 2.0 7.0 0.00 0.00 0.00 43 1015.6
20260831125804 93 297 2.0 7.0 0.00 0.00 0.00 42 1015.7
20260831125704 93 298 2.0 7.0 0.00 0.00 0.00 43 1015.7
20260831125604 93 299 2.0 7.0 0.00 0.00 0.00 42 1015.7
20260831125504 93 299 1.0 7.0 0.00 0.00 0.00 42 1015.6
20260831125404 93 300 1.0 5.0 0.00 0.00 0.00 41 1015.6
20260831125306 93 299 1.0 5.0 0.00 0.00 0.00 41 1015.6
20260831125204 93 300 1.0 6.0 0.00 0.00 0.00 40 1015.5
20260831125103 93 297 1.0 7.0 0.00 0.00 0.00 40 1015.5
20260831125004 93 296 2.0 9.0 0.00 0.00 0.00 39 1015.5
20260831124904 93 297 1.0 9.0 0.00 0.00 0.00 38 1015.5
20260831124804 93 296 1.0 9.0 0.00 0.00 0.00 39 1015.6
20260831124703 93 295 1.0 9.0 0.00 0.00 0.00 39 1015.5
20260831124603 93 295 1.0 9.0 0.00 0.00 0.00 39 1015.6
20260831124503 93 295 1.0 9.0 0.00 0.00 0.00 38 1015.5
20260831124403 93 294 1.0 9.0 0.00 0.00 0.00 38 1015.6
20260831124303 93 294 1.0 9.0 0.00 0.00 0.00 38 1015.6
20260831124203 93 292 1.0 9.0 0.00 0.00 0.00 38 1015.5
20260831124103 93 293 1.0 9.0 0.00 0.00 0.00 38 1015.5
20260831124003 93 294 1.0 6.0 0.00 0.00 0.00 38 1015.5
20260831123903 93 294 1.0 6.0 0.00 0.00 0.00 39 1015.5
20260831123803 93 294 1.0 6.0 0.00 0.00 0.00 40 1015.5
20260831123703 93 298 1.0 6.0 0.00 0.00 0.00 40 1015.5
20260831123603 93 300 1.0 6.0 0.00 0.00 0.00 40 1015.4
20260831123503 93 296 1.0 6.0 0.00 0.00 0.00 39 1015.5
20260831123403 93 296 1.0 6.0 0.00 0.00 0.00 39 1015.5
20260831123303 93 297 1.0 6.0 0.00 0.00 0.00 39 1015.5
20260831123203 93 303 1.0 6.0 0.00 0.00 0.00 40 1015.4
20260831123103 93 315 0.0 5.0 0.00 0.00 0.00 41 1015.4
20260831123003 93 305 0.0 5.0 0.00 0.00 0.00 41 1015.6
20260831122903 93 303 0.0 5.0 0.00 0.00 0.00 40 1015.6
20260831122803 93 303 1.0 5.0 0.00 0.00 0.00 40 1015.6
20260831122703 93 324 1.0 5.0 0.00 0.00 0.00 40 1015.5
20260831122603 93 311 1.0 5.0 0.00 0.00 0.00 40 1015.5
20260831122503 93 315 1.0 6.0 0.00 0.00 0.00 40 1015.6
20260831122403 93 320 1.0 6.0 0.00 0.00 0.00 40 1015.6
20260831122305 93 330 1.0 6.0 0.00 0.00 0.00 42 1015.6
20260831122203 93 28 1.0 6.0 0.00 0.00 0.00 42 1015.6
20260831122103 93 22 1.0 6.0 0.00 0.00 0.00 41 1015.6
20260831122003 93 56 1.0 6.0 0.00 0.00 0.00 41 1015.6
20260831121903 93 49 1.0 6.0 0.00 0.00 0.00 39 1015.5
20260831121803 93 27 1.0 6.0 0.00 0.00 0.00 39 1015.6
20260831121703 93 325 1.0 6.0 0.00 0.00 0.00 39 1015.6
20260831121603 93 349 0.0 6.0 0.00 0.00 0.00 41 1015.6
20260831121503 93 108 0.0 3.0 0.00 0.00 0.00 40 1015.7
20260831121403 93 99 0.0 3.0 0.00 0.00 0.00 40 1015.6
20260831121303 93 115 0.0 3.0 0.00 0.00 0.00 40 1015.5
20260831121203 93 114 0.0 3.0 0.00 0.00 0.00 40 1015.6
20260831121103 93 116 0.0 3.0 0.00 0.00 0.00 39 1015.6
20260831121003 93 114 1.0 4.0 0.00 0.00 0.00 39 1015.6
20260831120903 93 113 1.0 4.0 0.00 0.00 0.00 40 1015.6
20260831120803 93 113 1.0 4.0 0.00 0.00 0.00 40 1015.7
20260831120703 93 113 1.0 4.0 0.00 0.00 0.00 41 1015.6
20260831120603 93 114 1.0 4.0 0.00 0.00 0.00 41 1015.6
20260831120503 93 113 1.0 4.0 0.00 0.00 0.00 40 1015.7
20260831120403 93 112 1.0 4.0 0.00 0.00 0.00 39 1015.6
20260831120303 93 112 1.0 4.0 0.00 0.00 0.00 38 1015.7
20260831120203 93 109 1.0 6.0 0.00 0.00 0.00 38 1015.7
20260831120103 93 97 1.0 6.0 0.00 0.00 0.00 38 1015.6
20260831120003 93 356 1.0 6.0 0.00 0.00 0.00 38 1015.5
20260831115903 93 319 2.0 6.0 0.00 0.00 0.00 38 1015.7
20260831115803 93 310 2.0 6.0 0.00 0.00 0.00 38 1015.6
20260831115703 93 313 2.0 6.0 0.00 0.00 0.00 36 1015.6
20260831115603 93 313 3.0 6.0 0.00 0.00 0.00 36 1015.6
20260831115503 93 315 3.0 6.0 0.00 0.00 0.00 37 1015.7
20260831115403 93 312 3.0 6.0 0.00 0.00 0.00 36 1015.7
20260831115306 93 309 2.0 6.0 0.00 0.00 0.00 36 1015.7
20260831115203 93 309 2.0 6.0 0.00 0.00 0.00 36 1015.7
20260831115103 93 311 2.0 6.0 0.00 0.00 0.00 36 1015.7
20260831115003 93 313 2.0 6.0 0.00 0.00 0.00 36 1015.7
20260831114903 93 315 2.0 6.0 0.00 0.00 0.00 36 1015.6
20260831114803 93 324 1.0 6.0 0.00 0.00 0.00 36 1015.5
20260831114703 93 329 1.0 6.0 0.00 0.00 0.00 36 1015.6
20260831114603 93 336 1.0 6.0 0.00 0.00 0.00 36 1015.5
20260831114503 93 320 1.0 6.0 0.00 0.00 0.00 36 1015.6
20260831114403 93 303 1.0 6.0 0.00 0.00 0.00 36 1015.6
20260831114303 93 305 1.0 6.0 0.00 0.00 0.00 35 1015.6
20260831114203 93 302 1.0 6.0 0.00 0.00 0.00 35 1015.5
20260831114103 93 299 1.0 6.0 0.00 0.00 0.00 35 1015.6
20260831114003 93 301 1.0 6.0 0.00 0.00 0.00 35 1015.5
20260831113903 93 297 1.0 8.0 0.00 0.00 0.00 35 1015.6
20260831113803 93 296 2.0 8.0 0.00 0.00 0.00 35 1015.6
20260831113703 93 296 2.0 8.0 0.00 0.00 0.00 35 1015.7
20260831113603 93 297 2.0 8.0 0.00 0.00 0.00 35 1015.7
20260831113503 93 297 3.0 8.0 0.00 0.00 0.00 35 1015.7
20260831113403 93 299 3.0 9.0 0.00 0.00 0.00 35 1015.6
20260831113303 93 298 3.0 12.0 0.00 0.00 0.00 35 1015.5
20260831113203 93 299 4.0 12.0 0.00 0.00 0.00 35 1015.4
20260831113103 93 300 4.0 12.0 0.00 0.00 0.00 34 1015.4
20260831113003 93 299 4.0 12.0 0.00 0.00 0.00 34 1015.5
20260831112903 93 301 4.0 12.0 0.00 0.00 0.00 34 1015.3
20260831112803 93 301 4.0 12.0 0.00 0.00 0.00 34 1015.4
20260831112703 93 301 4.0 12.0 0.00 0.00 0.00 34 1015.5
20260831112603 93 302 4.0 12.0 0.00 0.00 0.00 33 1015.5
20260831112503 93 301 4.0 12.0 0.00 0.00 0.00 32 1015.5
20260831112403 93 299 4.0 12.0 0.00 0.00 0.00 34 1015.5
20260831112306 93 298 3.0 11.0 0.00 0.00 0.00 34 1015.3
20260831112203 93 298 3.0 11.0 0.00 0.00 0.00 34 1015.5
20260831112103 93 297 3.0 11.0 0.00 0.00 0.00 34 1015.4
20260831112003 93 298 4.0 11.0 0.00 0.00 0.00 34 1015.4
20260831111903 93 298 4.0 11.0 0.00 0.00 0.00 34 1015.4
20260831111803 93 298 4.0 11.0 0.00 0.00 0.00 34 1015.5
20260831111703 93 299 4.0 11.0 0.00 0.00 0.00 34 1015.4
20260831111603 93 300 3.0 10.0 0.00 0.00 0.00 34 1015.5
20260831111503 93 304 3.0 8.0 0.00 0.00 0.00 34 1015.5
20260831111403 93 303 3.0 8.0 0.00 0.00 0.00 34 1015.5
20260831111303 93 305 3.0 8.0 0.00 0.00 0.00 34 1015.5
20260831111203 93 304 3.0 9.0 0.00 0.00 0.00 34 1015.5
20260831111104 93 305 3.0 14.0 0.00 0.00 0.00 34 1015.5
20260831111004 93 303 4.0 14.0 0.00 0.00 0.00 35 1015.5
20260831110904 93 303 4.0 14.0 0.00 0.00 0.00 35 1015.6
20260831110804 93 304 4.0 14.0 0.00 0.00 0.00 35 1015.6
20260831110704 93 303 4.0 14.0 0.00 0.00 0.00 34 1015.6
20260831110604 93 301 5.0 14.0 0.00 0.00 0.00 34 1015.6
20260831110504 93 302 5.0 14.0 0.00 0.00 0.00 34 1015.5
20260831110404 93 303 4.0 14.0 0.00 0.00 0.00 34 1015.5
20260831110304 93 302 5.0 14.0 0.00 0.00 0.00 34 1015.6
20260831110204 93 303 4.0 14.0 0.00 0.00 0.00 34 1015.6
20260831110104 93 301 4.0 10.0 0.00 0.00 0.00 34 1015.6
20260831110004 93 301 4.0 10.0 0.00 0.00 0.00 34 1015.6
20260831105904 93 301 3.0 10.0 0.00 0.00 0.00 34 1015.6
20260831105804 93 298 3.0 7.0 0.00 0.00 0.00 34 1015.5
20260831105704 93 297 2.0 7.0 0.00 0.00 0.00 34 1015.6
20260831105604 93 299 2.0 7.0 0.00 0.00 0.00 34 1015.6
20260831105504 93 296 2.0 7.0 0.00 0.00 0.00 35 1015.6
20260831105404 93 294 2.0 7.0 0.00 0.00 0.00 35 1015.5
20260831105306 93 293 2.0 7.0 0.00 0.00 0.00 35 1015.5
20260831105204 93 295 2.0 7.0 0.00 0.00 0.00 36 1015.6
20260831105104 93 298 2.0 6.0 0.00 0.00 0.00 36 1015.5
20260831105004 93 299 2.0 6.0 0.00 0.00 0.00 36 1015.6
20260831104904 93 298 2.0 6.0 0.00 0.00 0.00 36 1015.6
20260831104804 93 297 2.0 6.0 0.00 0.00 0.00 36 1015.7
20260831104704 93 298 2.0 6.0 0.00 0.00 0.00 36 1015.7
20260831104604 93 297 2.0 6.0 0.00 0.00 0.00 36 1015.7
20260831104504 93 297 2.0 6.0 0.00 0.00 0.00 36 1015.7
20260831104404 93 297 2.0 8.0 0.00 0.00 0.00 36 1015.7
20260831104304 93 296 2.0 8.0 0.00 0.00 0.00 36 1015.6
20260831104204 93 295 2.0 8.0 0.00 0.00 0.00 36 1015.7
20260831104104 93 294 2.0 8.0 0.00 0.00 0.00 36 1015.6
20260831104004 93 294 2.0 8.0 0.00 0.00 0.00 36 1015.7
20260831103904 92 293 2.0 8.0 0.00 0.00 0.00 36 1015.7
20260831103804 92 294 2.0 8.0 0.00 0.00 0.00 37 1015.7
20260831103704 92 292 2.0 8.0 0.00 0.00 0.00 38 1015.8
20260831103604 92 292 1.0 8.0 0.00 0.00 0.00 38 1015.8
20260831103504 92 292 1.0 8.0 0.00 0.00 0.00 38 1015.8
20260831103404 92 293 1.0 6.0 0.00 0.00 0.00 38 1015.8
20260831103304 92 296 1.0 6.0 0.00 0.00 0.00 38 1015.8
20260831103204 92 296 2.0 10.0 0.00 0.00 0.00 38 1015.8
20260831103104 92 296 2.0 10.0 0.00 0.00 0.00 38 1015.8
20260831103004 92 295 2.0 13.0 0.00 0.00 0.00 38 1015.8
20260831102904 92 298 3.0 13.0 0.00 0.00 0.00 38 1015.9
20260831102804 92 298 3.0 13.0 0.00 0.00 0.00 38 1015.9
20260831102704 92 297 3.0 13.0 0.00 0.00 0.00 38 1015.8
20260831102604 92 298 3.0 13.0 0.00 0.00 0.00 38 1015.9
20260831102504 92 297 4.0 13.0 0.00 0.00 0.00 38 1015.9
20260831102404 92 298 4.0 13.0 0.00 0.00 0.00 38 1015.7
20260831102306 92 299 4.0 13.0 0.00 0.00 0.00 39 1015.8
20260831102204 92 298 4.0 13.0 0.00 0.00 0.00 39 1015.7
20260831102104 92 298 4.0 13.0 0.00 0.00 0.00 39 1015.7
20260831102004 92 299 4.0 10.0 0.00 0.00 0.00 39 1015.8
20260831101904 92 299 5.0 10.0 0.00 0.00 0.00 39 1015.8
20260831101804 92 300 5.0 10.0 0.00 0.00 0.00 39 1015.7
20260831101704 92 301 5.0 11.0 0.00 0.00 0.00 39 1015.6
20260831101603 92 300 5.0 11.0 0.00 0.00 0.00 40 1015.8
20260831101503 92 301 5.0 11.0 0.00 0.00 0.00 41 1015.8
20260831101403 92 300 5.0 11.0 0.00 0.00 0.00 42 1015.8
20260831101303 92 299 5.0 11.0 0.00 0.00 0.00 41 1015.9
20260831101204 92 300 5.0 11.0 0.00 0.00 0.00 39 1015.9
20260831101103 92 301 4.0 11.0 0.00 0.00 0.00 40 1015.9
20260831101003 92 300 4.0 11.0 0.00 0.00 0.00 39 1015.9
20260831100903 92 299 4.0 11.0 0.00 0.00 0.00 39 1015.8
20260831100803 92 298 3.0 11.0 0.00 0.00 0.00 40 1015.9
20260831100703 92 297 3.0 11.0 0.00 0.00 0.00 40 1015.9
20260831100603 92 298 3.0 8.0 0.00 0.00 0.00 42 1015.8
20260831100503 92 298 3.0 8.0 0.00 0.00 0.00 42 1015.9
20260831100403 91 299 3.0 9.0 0.00 0.00 0.00 42 1015.9
20260831100303 91 299 3.0 9.0 0.00 0.00 0.00 42 1015.8
20260831100203 91 298 3.0 9.0 0.00 0.00 0.00 42 1015.8
20260831100103 91 298 3.0 9.0 0.00 0.00 0.00 43 1015.9
20260831100003 91 298 3.0 9.0 0.00 0.00 0.00 45 1015.8
20260831095903 91 299 3.0 9.0 0.00 0.00 0.00 45 1015.8
20260831095803 91 299 3.0 9.0 0.00 0.00 0.00 45 1015.8
20260831095703 91 298 3.0 9.0 0.00 0.00 0.00 45 1015.8
20260831095603 91 298 3.0 13.0 0.00 0.00 0.00 45 1015.8
20260831095503 91 298 3.0 13.0 0.00 0.00 0.00 45 1015.8
20260831095403 91 298 3.0 13.0 0.00 0.00 0.00 45 1015.9
20260831095306 91 300 3.0 13.0 0.00 0.00 0.00 46 1015.8
20260831095203 91 301 3.0 13.0 0.00 0.00 0.00 46 1015.8
20260831095103 91 302 3.0 13.0 0.00 0.00 0.00 47 1015.8
20260831095004 91 301 3.0 13.0 0.00 0.00 0.00 47 1015.8
20260831094903 91 301 3.0 13.0 0.00 0.00 0.00 47 1015.8
20260831094803 91 303 3.0 13.0 0.00 0.00 0.00 46 1015.9
20260831094703 91 304 3.0 13.0 0.00 0.00 0.00 46 1015.8
20260831094603 91 306 2.0 7.0 0.00 0.00 0.00 46 1015.8
20260831094505 91 307 2.0 7.0 0.00 0.00 0.00 46 1015.9
20260831094403 91 305 2.0 7.0 0.00 0.00 0.00 46 1015.9
20260831094303 91 303 2.0 9.0 0.00 0.00 0.00 46 1015.9
20260831094203 91 301 2.0 9.0 0.00 0.00 0.00 46 1015.8
20260831094103 91 299 2.0 9.0 0.00 0.00 0.00 48 1015.8
20260831094003 91 302 2.0 9.0 0.00 0.00 0.00 48 1015.8
20260831093903 91 301 3.0 10.0 0.00 0.00 0.00 49 1015.8
20260831093803 91 299 3.0 10.0 0.00 0.00 0.00 49 1015.9
20260831093703 91 299 3.0 10.0 0.00 0.00 0.00 49 1015.8
20260831093603 91 298 3.0 10.0 0.00 0.00 0.00 49 1015.8
20260831093503 91 298 3.0 10.0 0.00 0.00 0.00 48 1015.8
20260831093403 91 299 3.0 10.0 0.00 0.00 0.00 48 1015.8
20260831093303 91 300 2.0 10.0 0.00 0.00 0.00 48 1015.8
20260831093203 91 300 2.0 10.0 0.00 0.00 0.00 48 1015.8
20260831093103 91 301 2.0 10.0 0.00 0.00 0.00 48 1015.9
20260831093003 91 299 2.0 10.0 0.00 0.00 0.00 49 1015.9
20260831092903 91 298 2.0 8.0 0.00 0.00 0.00 49 1015.9
20260831092803 91 297 1.0 5.0 0.00 0.00 0.00 49 1015.9
20260831092703 91 297 1.0 5.0 0.00 0.00 0.00 49 1015.8
20260831092603 91 298 1.0 5.0 0.00 0.00 0.00 49 1015.8
20260831092503 91 299 1.0 7.0 0.00 0.00 0.00 49 1015.9
20260831092403 91 298 1.0 7.0 0.00 0.00 0.00 49 1015.8
20260831092306 91 297 1.0 7.0 0.00 0.00 0.00 49 1015.8
20260831092203 91 295 1.0 7.0 0.00 0.00 0.00 50 1015.8
20260831092103 91 293 1.0 7.0 0.00 0.00 0.00 50 1015.7
20260831092003 91 295 1.0 7.0 0.00 0.00 0.00 50 1015.8
20260831091903 90 297 1.0 7.0 0.00 0.00 0.00 50 1015.8
20260831091803 91 298 1.0 7.0 0.00 0.00 0.00 50 1015.8
20260831091703 90 298 1.0 7.0 0.00 0.00 0.00 50 1015.8
20260831091603 91 296 1.0 7.0 0.00 0.00 0.00 50 1015.9
20260831091503 90 296 1.0 6.0 0.00 0.00 0.00 51 1015.9
20260831091403 90 295 1.0 6.0 0.00 0.00 0.00 52 1015.9
20260831091303 90 308 1.0 6.0 0.00 0.00 0.00 52 1015.8
20260831091203 90 306 1.0 6.0 0.00 0.00 0.00 52 1015.9
20260831091103 90 304 1.0 6.0 0.00 0.00 0.00 52 1015.8
20260831091003 90 306 1.0 6.0 0.00 0.00 0.00 52 1015.8
20260831090903 90 307 1.0 6.0 0.00 0.00 0.00 52 1015.8
20260831090803 90 308 1.0 6.0 0.00 0.00 0.00 53 1015.7
20260831090703 90 307 1.0 6.0 0.00 0.00 0.00 53 1015.9
20260831090603 90 307 1.0 6.0 0.00 0.00 0.00 53 1015.9
20260831090503 90 308 1.0 6.0 0.00 0.00 0.00 53 1015.9
20260831090403 90 308 2.0 6.0 0.00 0.00 0.00 54 1015.9
20260831090303 90 304 1.0 6.0 0.00 0.00 0.00 54 1015.8
20260831090203 90 304 1.0 6.0 0.00 0.00 0.00 54 1015.9
20260831090103 90 306 1.0 6.0 0.00 0.00 0.00 54 1015.8
20260831090003 90 307 2.0 7.0 0.00 0.00 0.00 54 1015.8
20260831085903 90 303 2.0 7.0 0.00 0.00 0.00 54 1015.8
20260831085803 90 301 2.0 7.0 0.00 0.00 0.00 54 1015.8
20260831085703 90 301 2.0 7.0 0.00 0.00 0.00 54 1015.9
20260831085603 90 301 2.0 7.0 0.00 0.00 0.00 54 1015.9
20260831085503 90 300 2.0 7.0 0.00 0.00 0.00 54 1015.9
20260831085403 90 299 2.0 7.0 0.00 0.00 0.00 54 1015.9
20260831085306 90 302 3.0 7.0 0.00 0.00 0.00 54 1015.9
20260831085203 90 303 3.0 8.0 0.00 0.00 0.00 54 1015.8
20260831085103 90 302 3.0 8.0 0.00 0.00 0.00 55 1015.8
20260831085003 89 302 3.0 8.0 0.00 0.00 0.00 55 1015.9
20260831084903 90 303 3.0 8.0 0.00 0.00 0.00 55 1015.9
20260831084803 89 302 3.0 12.0 0.00 0.00 0.00 55 1015.9
20260831084703 89 302 3.0 12.0 0.00 0.00 0.00 55 1015.9
20260831084603 89 300 4.0 12.0 0.00 0.00 0.00 54 1015.9
20260831084503 89 300 4.0 12.0 0.00 0.00 0.00 54 1015.9
20260831084403 89 301 5.0 12.0 0.00 0.00 0.00 54 1015.8
20260831084303 89 300 5.0 12.0 0.00 0.00 0.00 54 1015.9
20260831084203 89 299 5.0 12.0 0.00 0.00 0.00 54 1015.9
20260831084103 89 299 4.0 12.0 0.00 0.00 0.00 54 1015.8
20260831084003 89 297 5.0 12.0 0.00 0.00 0.00 55 1015.8
20260831083903 89 298 5.0 12.0 0.00 0.00 0.00 55 1015.9
20260831083803 89 298 4.0 11.0 0.00 0.00 0.00 55 1015.9
20260831083703 89 297 4.0 11.0 0.00 0.00 0.00 55 1015.9
20260831083603 89 299 4.0 11.0 0.00 0.00 0.00 55 1015.9
20260831083503 89 299 4.0 9.0 0.00 0.00 0.00 56 1015.8
20260831083403 89 300 5.0 10.0 0.00 0.00 0.00 56 1015.8
20260831083303 89 299 5.0 13.0 0.00 0.00 0.00 56 1015.8
20260831083203 89 300 5.0 13.0 0.00 0.00 0.00 56 1015.9
20260831083103 89 301 5.0 13.0 0.00 0.00 0.00 56 1015.8
20260831083003 89 302 5.0 13.0 0.00 0.00 0.00 56 1015.8
20260831082903 89 303 6.0 13.0 0.00 0.00 0.00 55 1015.8
20260831082803 89 303 6.0 13.0 0.00 0.00 0.00 55 1015.8
20260831082704 89 303 5.0 13.0 0.00 0.00 0.00 55 1015.8
20260831082604 89 302 5.0 13.0 0.00 0.00 0.00 54 1015.9
20260831082504 89 303 5.0 13.0 0.00 0.00 0.00 54 1015.9
20260831082404 89 302 4.0 13.0 0.00 0.00 0.00 54 1015.9
20260831082306 89 304 4.0 12.0 0.00 0.00 0.00 55 1015.8
20260831082204 89 302 4.0 11.0 0.00 0.00 0.00 55 1015.8
20260831082104 89 299 4.0 11.0 0.00 0.00 0.00 55 1015.8
20260831082004 89 298 4.0 11.0 0.00 0.00 0.00 55 1015.7
20260831081904 89 297 4.0 11.0 0.00 0.00 0.00 55 1015.6
20260831081804 89 299 4.0 11.0 0.00 0.00 0.00 55 1015.7
20260831081704 89 299 4.0 11.0 0.00 0.00 0.00 55 1015.5
20260831081604 90 299 4.0 11.0 0.00 0.00 0.00 55 1015.5
20260831081504 90 300 4.0 11.0 0.00 0.00 0.00 55 1015.5
20260831081404 90 299 5.0 11.0 0.00 0.00 0.00 54 1015.6
20260831081304 90 299 4.0 8.0 0.00 0.00 0.00 55 1015.6
20260831081204 90 300 4.0 14.0 0.00 0.00 0.00 55 1015.6
20260831081104 90 301 4.0 14.0 0.00 0.00 0.00 55 1015.6
20260831081004 90 303 4.0 14.0 0.00 0.00 0.00 55 1015.5
20260831080904 90 303 4.0 14.0 0.00 0.00 0.00 55 1015.5
20260831080804 90 302 4.0 14.0 0.00 0.00 0.00 55 1015.6
20260831080704 90 302 4.0 14.0 0.00 0.00 0.00 54 1015.5
20260831080604 90 301 4.0 14.0 0.00 0.00 0.00 54 1015.7
20260831080504 90 300 3.0 14.0 0.00 0.00 0.00 54 1015.8
20260831080404 90 300 3.0 14.0 0.00 0.00 0.00 54 1015.6
20260831080304 90 300 3.0 14.0 0.00 0.00 0.00 55 1015.6
20260831080204 90 300 2.0 8.0 0.00 0.00 0.00 55 1015.6
20260831080104 90 299 2.0 8.0 0.00 0.00 0.00 56 1015.6
20260831080004 90 302 2.0 6.0 0.00 0.00 0.00 56 1015.5
20260831075904 90 300 2.0 6.0 0.00 0.00 0.00 56 1015.5
20260831075804 90 299 3.0 8.0 0.00 0.00 0.00 56 1015.6
20260831075704 90 300 3.0 8.0 0.00 0.00 0.00 56 1015.5
20260831075604 90 300 3.0 8.0 0.00 0.00 0.00 56 1015.4
20260831075504 90 300 2.0 8.0 0.00 0.00 0.00 56 1015.4
20260831075404 90 301 3.0 8.0 0.00 0.00 0.00 56 1015.4
20260831075306 89 300 3.0 8.0 0.00 0.00 0.00 56 1015.5
20260831075204 89 300 3.0 8.0 0.00 0.00 0.00 56 1015.4
20260831075104 89 300 3.0 8.0 0.00 0.00 0.00 56 1015.4
20260831075004 89 296 3.0 8.0 0.00 0.00 0.00 56 1015.5
20260831074904 89 298 3.0 8.0 0.00 0.00 0.00 56 1015.5
20260831074804 89 300 3.0 8.0 0.00 0.00 0.00 57 1015.4
20260831074704 89 301 3.0 7.0 0.00 0.00 0.00 57 1015.5
20260831074604 89 301 3.0 9.0 0.00 0.00 0.00 57 1015.5
20260831074504 89 301 3.0 9.0 0.00 0.00 0.00 57 1015.5
20260831074403 89 299 3.0 11.0 0.00 0.00 0.00 57 1015.5
20260831074304 89 300 3.0 11.0 0.00 0.00 0.00 57 1015.5
20260831074204 89 299 4.0 11.0 0.00 0.00 0.00 57 1015.5
20260831074104 89 299 4.0 11.0 0.00 0.00 0.00 57 1015.4
20260831074003 89 298 4.0 11.0 0.00 0.00 0.00 57 1015.5
20260831073903 89 296 4.0 11.0 0.00 0.00 0.00 57 1015.6
20260831073803 89 295 4.0 11.0 0.00 0.00 0.00 57 1015.6
20260831073703 89 294 4.0 11.0 0.00 0.00 0.00 57 1015.5
20260831073603 89 294 4.0 11.0 0.00 0.00 0.00 57 1015.5
20260831073504 89 295 4.0 11.0 0.00 0.00 0.00 57 1015.4
20260831073403 89 297 4.0 10.0 0.00 0.00 0.00 58 1015.5
20260831073303 89 296 5.0 8.0 0.00 0.00 0.00 58 1015.4
20260831073203 89 297 5.0 8.0 0.00 0.00 0.00 58 1015.4
20260831073103 89 298 4.0 8.0 0.00 0.00 0.00 58 1015.3
20260831073003 89 300 4.0 8.0 0.00 0.00 0.00 58 1015.3
20260831072903 89 300 5.0 8.0 0.00 0.00 0.00 58 1015.4
20260831072803 89 299 4.0 8.0 0.00 0.00 0.00 58 1015.2
20260831072703 89 300 4.0 8.0 0.00 0.00 0.00 58 1015.3
20260831072603 89 301 4.0 8.0 0.00 0.00 0.00 58 1015.2
20260831072503 89 301 4.0 8.0 0.00 0.00 0.00 58 1015.3
20260831072403 89 300 4.0 8.0 0.00 0.00 0.00 58 1015.3
20260831072306 89 301 4.0 8.0 0.00 0.00 0.00 58 1015.3
20260831072203 89 299 4.0 8.0 0.00 0.00 0.00 58 1015.2
20260831072103 89 299 4.0 8.0 0.00 0.00 0.00 58 1015.2
20260831072004 89 298 4.0 9.0 0.00 0.00 0.00 59 1015.3
20260831071904 89 297 4.0 12.0 0.00 0.00 0.00 59 1015.2
20260831071803 89 297 4.0 12.0 0.00 0.00 0.00 59 1015.4
20260831071703 89 297 4.0 12.0 0.00 0.00 0.00 59 1015.3
20260831071603 89 295 4.0 12.0 0.00 0.00 0.00 59 1015.3
20260831071503 89 295 4.0 12.0 0.00 0.00 0.00 59 1015.4
20260831071403 89 295 4.0 12.0 0.00 0.00 0.00 59 1015.3
20260831071305 89 295 4.0 12.0 0.00 0.00 0.00 58 1015.4
20260831071203 89 295 5.0 12.0 0.00 0.00 0.00 58 1015.4
20260831071103 89 295 5.0 12.0 0.00 0.00 0.00 58 1015.4
20260831071003 89 294 5.0 12.0 0.00 0.00 0.00 59 1015.4
20260831070903 89 297 5.0 11.0 0.00 0.00 0.00 58 1015.3
20260831070803 89 299 5.0 11.0 0.00 0.00 0.00 59 1015.2
20260831070703 89 300 5.0 11.0 0.00 0.00 0.00 59 1015.2
20260831070603 89 300 5.0 12.0 0.00 0.00 0.00 59 1015.2
20260831070503 89 301 5.0 12.0 0.00 0.00 0.00 59 1015.2
20260831070403 89 301 5.0 12.0 0.00 0.00 0.00 58 1015.2
20260831070303 89 301 5.0 12.0 0.00 0.00 0.00 58 1015.2
20260831070203 89 303 5.0 12.0 0.00 0.00 0.00 58 1015.2
20260831070103 89 302 5.0 13.0 0.00 0.00 0.00 58 1015.2
20260831070003 89 301 5.0 13.0 0.00 0.00 0.00 58 1015.2
20260831065903 89 299 5.0 13.0 0.00 0.00 0.00 58 1015.2
20260831065803 89 300 5.0 13.0 0.00 0.00 0.00 58 1015.2
20260831065703 89 300 5.0 13.0 0.00 0.00 0.00 59 1015.2
20260831065603 89 300 5.0 13.0 0.00 0.00 0.00 59 1015.3
20260831065503 89 300 5.0 13.0 0.00 0.00 0.00 59 1015.2
20260831065403 89 300 5.0 13.0 0.00 0.00 0.00 59 1015.1
20260831065306 89 300 5.0 13.0 0.00 0.00 0.00 59 1015.1
20260831065203 89 299 5.0 13.0 0.00 0.00 0.00 59 1015.0
20260831065103 89 299 4.0 12.0 0.00 0.00 0.00 59 1015.0
20260831065003 89 301 5.0 12.0 0.00 0.00 0.00 59 1015.1
20260831064903 89 301 4.0 12.0 0.00 0.00 0.00 59 1015.1
20260831064803 89 301 4.0 9.0 0.00 0.00 0.00 59 1015.1
20260831064703 89 299 4.0 9.0 0.00 0.00 0.00 59 1015.1
20260831064603 89 297 4.0 9.0 0.00 0.00 0.00 60 1015.1
20260831064503 89 297 4.0 9.0 0.00 0.00 0.00 60 1015.1
20260831064403 89 296 4.0 13.0 0.00 0.00 0.00 60 1015.1
20260831064303 89 296 4.0 13.0 0.00 0.00 0.00 60 1015.1
20260831064203 89 296 4.0 13.0 0.00 0.00 0.00 60 1015.1
20260831064103 89 297 4.0 13.0 0.00 0.00 0.00 60 1015.1
20260831064003 89 296 4.0 13.0 0.00 0.00 0.00 60 1015.1
20260831063903 89 298 4.0 13.0 0.00 0.00 0.00 60 1015.2
20260831063803 89 297 4.0 13.0 0.00 0.00 0.00 61 1015.2
20260831063703 89 299 4.0 13.0 0.00 0.00 0.00 61 1015.1
20260831063603 89 300 4.0 13.0 0.00 0.00 0.00 61 1015.2
20260831063503 89 299 4.0 13.0 0.00 0.00 0.00 61 1015.2
20260831063403 89 301 4.0 11.0 0.00 0.00 0.00 62 1015.2
20260831063303 89 300 4.0 11.0 0.00 0.00 0.00 62 1015.1
20260831063203 89 300 4.0 11.0 0.00 0.00 0.00 62 1015.2
20260831063103 89 302 4.0 11.0 0.00 0.00 0.00 62 1015.1
20260831063003 89 301 4.0 11.0 0.00 0.00 0.00 62 1015.1
20260831062903 89 300 4.0 11.0 0.00 0.00 0.00 62 1015.1
20260831062803 89 299 4.0 11.0 0.00 0.00 0.00 62 1015.0
20260831062703 89 300 4.0 11.0 0.00 0.00 0.00 62 1015.0
20260831062603 89 300 4.0 11.0 0.00 0.00 0.00 62 1015.1
20260831062503 89 299 4.0 13.0 0.00 0.00 0.00 62 1015.1
20260831062403 89 299 4.0 13.0 0.00 0.00 0.00 62 1015.1
20260831062305 88 299 4.0 13.0 0.00 0.00 0.00 62 1015.2
20260831062203 88 300 4.0 13.0 0.00 0.00 0.00 63 1015.2
20260831062103 88 298 4.0 13.0 0.00 0.00 0.00 63 1015.1
20260831062003 88 299 4.0 13.0 0.00 0.00 0.00 63 1015.1
20260831061903 88 300 4.0 13.0 0.00 0.00 0.00 63 1015.2
20260831061803 88 300 4.0 13.0 0.00 0.00 0.00 63 1015.1
20260831061703 88 299 4.0 13.0 0.00 0.00 0.00 63 1015.2
20260831061603 88 298 4.0 13.0 0.00 0.00 0.00 63 1015.3
20260831061503 88 299 3.0 10.0 0.00 0.00 0.00 64 1015.3
20260831061403 88 298 4.0 10.0 0.00 0.00 0.00 64 1015.2
20260831061303 88 299 4.0 10.0 0.00 0.00 0.00 64 1015.1
20260831061203 88 298 4.0 10.0 0.00 0.00 0.00 64 1015.1
20260831061103 88 297 3.0 10.0 0.00 0.00 0.00 64 1015.1
20260831061003 87 296 4.0 10.0 0.00 0.00 0.00 64 1015.2
20260831060903 87 296 4.0 10.0 0.00 0.00 0.00 64 1015.2
20260831060803 87 297 4.0 10.0 0.00 0.00 0.00 64 1015.2
20260831060703 87 298 4.0 10.0 0.00 0.00 0.00 64 1015.1
20260831060603 87 300 4.0 10.0 0.00 0.00 0.00 65 1015.2
20260831060503 87 300 4.0 10.0 0.00 0.00 0.00 65 1015.2
20260831060403 87 300 4.0 11.0 0.00 0.00 0.00 65 1015.2
20260831060303 87 300 4.0 11.0 0.00 0.00 0.00 66 1015.3
20260831060203 87 299 4.0 11.0 0.00 0.00 0.00 66 1015.2
20260831060003 86 302 4.0 11.0 0.00 0.00 0.00 66 1015.2
20260831055903 86 301 4.0 11.0 0.00 0.00 0.00 66 1015.2
20260831055804 86 299 4.0 11.0 0.00 0.00 0.00 67 1015.2
20260831055704 86 298 4.0 11.0 0.00 0.00 0.00 67 1015.2
20260831055604 86 296 4.0 11.0 0.00 0.00 0.00 67 1015.2
20260831055504 86 296 4.0 11.0 0.00 0.00 0.00 67 1015.2
20260831055404 85 295 4.0 9.0 0.00 0.00 0.00 67 1015.2
20260831055306 85 298 4.0 14.0 0.00 0.00 0.00 67 1015.3
20260831055204 85 300 4.0 14.0 0.00 0.00 0.00 68 1015.2
20260831055104 85 298 4.0 14.0 0.00 0.00 0.00 68 1015.2
20260831055004 85 299 4.0 14.0 0.00 0.00 0.00 68 1015.2
20260831054904 85 298 5.0 14.0 0.00 0.00 0.00 68 1015.2
20260831054804 85 299 5.0 14.0 0.00 0.00 0.00 68 1015.3
20260831054704 85 301 5.0 14.0 0.00 0.00 0.00 68 1015.2
20260831054604 85 300 5.0 14.0 0.00 0.00 0.00 68 1015.2
20260831054504 84 300 5.0 14.0 0.00 0.00 0.00 68 1015.2
20260831054404 84 304 5.0 14.0 0.00 0.00 0.00 68 1015.2
20260831054304 84 302 5.0 10.0 0.00 0.00 0.00 68 1015.2
20260831054204 84 300 5.0 10.0 0.00 0.00 0.00 69 1015.2
20260831054104 84 300 5.0 10.0 0.00 0.00 0.00 69 1015.2
20260831054004 84 299 4.0 9.0 0.00 0.00 0.00 69 1015.2
20260831053904 84 299 4.0 12.0 0.00 0.00 0.00 69 1015.2
20260831053804 84 298 4.0 12.0 0.00 0.00 0.00 69 1015.1
20260831053704 84 298 4.0 12.0 0.00 0.00 0.00 69 1015.2
20260831053604 84 298 4.0 12.0 0.00 0.00 0.00 69 1015.2
20260831053504 84 297 4.0 12.0 0.00 0.00 0.00 69 1015.2
20260831053404 84 293 4.0 12.0 0.00 0.00 0.00 69 1015.2
20260831053304 84 295 4.0 12.0 0.00 0.00 0.00 69 1015.2
20260831053204 84 293 4.0 12.0 0.00 0.00 0.00 69 1015.1
20260831053104 84 293 3.0 12.0 0.00 0.00 0.00 69 1015.1
20260831053004 84 294 4.0 12.0 0.00 0.00 0.00 69 1015.1
20260831052904 84 294 4.0 12.0 0.00 0.00 0.00 69 1015.2
20260831052804 84 295 4.0 12.0 0.00 0.00 0.00 69 1015.2
20260831052704 84 295 4.0 12.0 0.00 0.00 0.00 69 1015.2
20260831052604 84 295 4.0 12.0 0.00 0.00 0.00 69 1015.2
20260831052504 84 294 4.0 11.0 0.00 0.00 0.00 70 1015.2
20260831052404 84 294 4.0 11.0 0.00 0.00 0.00 70 1015.2
20260831052306 84 293 4.0 11.0 0.00 0.00 0.00 70 1015.2
20260831052204 83 295 4.0 11.0 0.00 0.00 0.00 70 1015.1
20260831052104 83 296 4.0 11.0 0.00 0.00 0.00 70 1015.1
20260831052004 83 296 4.0 11.0 0.00 0.00 0.00 70 1015.1
20260831051904 83 296 4.0 11.0 0.00 0.00 0.00 70 1015.1
20260831051804 83 296 4.0 7.0 0.00 0.00 0.00 70 1015.1
20260831051704 83 297 4.0 8.0 0.00 0.00 0.00 70 1015.1
20260831051604 83 298 4.0 11.0 0.00 0.00 0.00 70 1015.1
20260831051504 83 299 4.0 11.0 0.00 0.00 0.00 70 1015.2
20260831051404 83 300 4.0 11.0 0.00 0.00 0.00 70 1015.2
20260831051304 83 301 3.0 11.0 0.00 0.00 0.00 70 1015.2
20260831051204 83 303 3.0 11.0 0.00 0.00 0.00 70 1015.2
20260831051104 83 300 4.0 11.0 0.00 0.00 0.00 70 1015.2
20260831051004 83 301 4.0 11.0 0.00 0.00 0.00 70 1015.1
20260831050904 83 301 4.0 11.0 0.00 0.00 0.00 70 1015.2
20260831050803 83 301 4.0 11.0 0.00 0.00 0.00 70 1015.2
20260831050703 83 301 4.0 11.0 0.00 0.00 0.00 70 1015.2
20260831050603 83 300 4.0 10.0 0.00 0.00 0.00 70 1015.2
20260831050503 83 299 4.0 10.0 0.00 0.00 0.00 70 1015.1
20260831050403 83 300 4.0 10.0 0.00 0.00 0.00 70 1015.2
20260831050303 83 299 4.0 10.0 0.00 0.00 0.00 70 1015.2
20260831050203 83 297 4.0 10.0 0.00 0.00 0.00 70 1015.1
20260831050103 83 298 3.0 9.0 0.00 0.00 0.00 70 1015.1
20260831050004 83 299 3.0 9.0 0.00 0.00 0.00 70 1015.1
20260831045903 83 299 3.0 9.0 0.00 0.00 0.00 70 1015.1
20260831045803 83 299 3.0 9.0 0.00 0.00 0.00 70 1015.2
20260831045703 83 299 3.0 8.0 0.00 0.00 0.00 70 1015.1
20260831045603 83 298 3.0 8.0 0.00 0.00 0.00 70 1015.1
20260831045503 83 297 3.0 8.0 0.00 0.00 0.00 70 1015.2
20260831045403 83 296 3.0 8.0 0.00 0.00 0.00 70 1015.2
20260831045306 83 296 3.0 8.0 0.00 0.00 0.00 70 1015.1
20260831045203 83 296 3.0 8.0 0.00 0.00 0.00 70 1015.1
20260831045103 83 297 3.0 8.0 0.00 0.00 0.00 70 1015.1
20260831045003 83 295 3.0 8.0 0.00 0.00 0.00 70 1015.1
20260831044903 83 296 3.0 8.0 0.00 0.00 0.00 70 1015.2
20260831044803 83 294 3.0 6.0 0.00 0.00 0.00 70 1015.1
20260831044703 83 294 3.0 7.0 0.00 0.00 0.00 70 1015.1
20260831044603 83 295 3.0 7.0 0.00 0.00 0.00 70 1015.1
20260831044503 83 294 3.0 7.0 0.00 0.00 0.00 71 1015.1
20260831044403 83 295 3.0 7.0 0.00 0.00 0.00 71 1015.1
20260831044303 83 294 3.0 7.0 0.00 0.00 0.00 71 1015.1
20260831044203 83 295 3.0 7.0 0.00 0.00 0.00 71 1015.1
20260831044103 83 294 3.0 7.0 0.00 0.00 0.00 71 1015.1
20260831044003 83 295 4.0 8.0 0.00 0.00 0.00 71 1015.0
20260831043903 83 297 4.0 8.0 0.00 0.00 0.00 71 1014.9
20260831043803 83 297 4.0 11.0 0.00 0.00 0.00 71 1015.0
20260831043703 83 297 4.0 11.0 0.00 0.00 0.00 71 1015.1
20260831043603 83 297 4.0 11.0 0.00 0.00 0.00 71 1015.1
20260831043503 83 298 4.0 11.0 0.00 0.00 0.00 71 1015.1
20260831043403 83 297 4.0 11.0 0.00 0.00 0.00 71 1015.0
20260831043303 83 297 4.0 11.0 0.00 0.00 0.00 71 1015.0
20260831043203 83 296 4.0 11.0 0.00 0.00 0.00 71 1014.9
20260831043103 83 297 3.0 11.0 0.00 0.00 0.00 71 1015.0
20260831043003 83 295 3.0 11.0 0.00 0.00 0.00 71 1015.1
20260831042903 83 294 3.0 11.0 0.00 0.00 0.00 71 1015.1
20260831042803 83 295 3.0 9.0 0.00 0.00 0.00 71 1014.9
20260831042703 83 295 3.0 9.0 0.00 0.00 0.00 71 1015.1
20260831042603 83 294 3.0 9.0 0.00 0.00 0.00 71 1015.1
20260831042503 83 294 3.0 7.0 0.00 0.00 0.00 71 1015.0
20260831042403 83 294 3.0 9.0 0.00 0.00 0.00 71 1015.0
20260831042306 83 294 4.0 9.0 0.00 0.00 0.00 71 1015.0
20260831042203 83 294 4.0 9.0 0.00 0.00 0.00 71 1015.1
20260831042103 83 294 4.0 9.0 0.00 0.00 0.00 71 1015.0
20260831042003 83 295 4.0 9.0 0.00 0.00 0.00 71 1014.9
20260831041903 83 296 4.0 9.0 0.00 0.00 0.00 71 1015.0
20260831041803 83 296 4.0 9.0 0.00 0.00 0.00 70 1014.9
20260831041703 83 296 4.0 9.0 0.00 0.00 0.00 70 1014.9
20260831041603 83 297 4.0 9.0 0.00 0.00 0.00 70 1014.9
20260831041503 83 297 4.0 9.0 0.00 0.00 0.00 70 1014.9
20260831041403 83 297 4.0 8.0 0.00 0.00 0.00 70 1015.1
20260831041303 83 298 4.0 8.0 0.00 0.00 0.00 70 1015.1
20260831041203 83 299 4.0 8.0 0.00 0.00 0.00 70 1015.0
20260831041103 83 300 4.0 8.0 0.00 0.00 0.00 70 1015.0
20260831041003 83 299 3.0 7.0 0.00 0.00 0.00 70 1014.9
20260831040903 83 297 4.0 8.0 0.00 0.00 0.00 70 1015.0
20260831040803 83 297 4.0 8.0 0.00 0.00 0.00 70 1015.0
20260831040703 83 296 4.0 8.0 0.00 0.00 0.00 70 1015.1
20260831040603 83 296 4.0 8.0 0.00 0.00 0.00 70 1015.1
20260831040503 83 297 4.0 8.0 0.00 0.00 0.00 70 1015.1
20260831040403 83 297 4.0 8.0 0.00 0.00 0.00 70 1015.2
20260831040303 83 297 4.0 8.0 0.00 0.00 0.00 69 1015.1
20260831040203 83 296 4.0 9.0 0.00 0.00 0.00 69 1015.1
20260831040103 83 296 4.0 9.0 0.00 0.00 0.00 69 1015.1
20260831040003 83 296 4.0 9.0 0.00 0.00 0.00 69 1015.1
20260831035903 83 298 4.0 9.0 0.00 0.00 0.00 69 1015.1
20260831035803 83 298 4.0 9.0 0.00 0.00 0.00 69 1015.2
20260831035703 83 299 4.0 9.0 0.00 0.00 0.00 69 1015.1
20260831035603 83 299 4.0 9.0 0.00 0.00 0.00 69 1015.1
20260831035503 83 299 4.0 9.0 0.00 0.00 0.00 69 1015.2
20260831035403 83 299 4.0 9.0 0.00 0.00 0.00 69 1015.2
20260831035306 83 300 3.0 9.0 0.00 0.00 0.00 69 1015.2
20260831035203 83 301 3.0 9.0 0.00 0.00 0.00 69 1015.2
20260831035103 83 301 3.0 9.0 0.00 0.00 0.00 69 1015.1
20260831035003 83 303 3.0 9.0 0.00 0.00 0.00 69 1015.2
20260831034903 83 301 3.0 9.0 0.00 0.00 0.00 69 1015.2
20260831034803 83 301 3.0 9.0 0.00 0.00 0.00 69 1015.2
20260831034703 83 301 3.0 9.0 0.00 0.00 0.00 69 1015.2
20260831034603 83 301 3.0 9.0 0.00 0.00 0.00 69 1015.2
20260831034503 83 301 3.0 8.0 0.00 0.00 0.00 70 1015.2
20260831034403 83 301 3.0 8.0 0.00 0.00 0.00 69 1015.2
20260831034303 83 300 3.0 8.0 0.00 0.00 0.00 69 1015.1
20260831034203 83 302 4.0 10.0 0.00 0.00 0.00 69 1015.1
20260831034103 83 302 4.0 11.0 0.00 0.00 0.00 69 1015.2
20260831034003 83 301 5.0 11.0 0.00 0.00 0.00 69 1015.2
20260831033903 83 300 5.0 15.0 0.00 0.00 0.00 69 1015.2
20260831033803 83 301 5.0 15.0 0.00 0.00 0.00 69 1015.3
20260831033703 83 301 5.0 15.0 0.00 0.00 0.00 70 1015.2
20260831033603 83 300 5.0 15.0 0.00 0.00 0.00 70 1015.2
20260831033503 83 300 5.0 15.0 0.00 0.00 0.00 70 1015.3
20260831033403 83 302 5.0 15.0 0.00 0.00 0.00 70 1015.2
20260831033303 83 302 5.0 15.0 0.00 0.00 0.00 70 1015.2
20260831033204 83 301 5.0 15.0 0.00 0.00 0.00 70 1015.2
20260831033104 83 301 5.0 15.0 0.00 0.00 0.00 70 1015.2
20260831033004 83 301 4.0 15.0 0.00 0.00 0.00 71 1015.2
20260831032904 83 302 4.0 10.0 0.00 0.00 0.00 71 1015.3
20260831032804 83 300 3.0 10.0 0.00 0.00 0.00 71 1015.3
20260831032704 83 301 3.0 10.0 0.00 0.00 0.00 71 1015.3
20260831032604 83 304 3.0 10.0 0.00 0.00 0.00 71 1015.3
20260831032504 83 302 3.0 10.0 0.00 0.00 0.00 71 1015.3
20260831032404 83 300 3.0 10.0 0.00 0.00 0.00 71 1015.4
20260831032306 83 298 3.0 8.0 0.00 0.00 0.00 71 1015.3
20260831032204 83 299 3.0 7.0 0.00 0.00 0.00 71 1015.3
20260831032104 83 298 2.0 7.0 0.00 0.00 0.00 71 1015.3
20260831032004 83 298 2.0 7.0 0.00 0.00 0.00 71 1015.4
20260831031904 83 299 2.0 7.0 0.00 0.00 0.00 71 1015.5
20260831031804 83 299 3.0 7.0 0.00 0.00 0.00 71 1015.4
20260831031704 83 299 2.0 7.0 0.00 0.00 0.00 71 1015.4
20260831031604 83 299 3.0 7.0 0.00 0.00 0.00 71 1015.3
20260831031504 83 300 3.0 7.0 0.00 0.00 0.00 71 1015.4
20260831031404 83 300 3.0 7.0 0.00 0.00 0.00 71 1015.4
20260831031304 83 301 2.0 7.0 0.00 0.00 0.00 72 1015.3
20260831031204 83 300 3.0 7.0 0.00 0.00 0.00 72 1015.4
20260831031104 83 300 3.0 7.0 0.00 0.00 0.00 72 1015.4
20260831031004 83 300 3.0 7.0 0.00 0.00 0.00 72 1015.4
20260831030904 84 300 3.0 7.0 0.00 0.00 0.00 72 1015.5
20260831030804 84 301 3.0 7.0 0.00 0.00 0.00 72 1015.5
20260831030704 84 302 4.0 15.0 0.00 0.00 0.00 72 1015.5
20260831030604 84 301 4.0 15.0 0.00 0.00 0.00 72 1015.5
20260831030504 84 300 4.0 15.0 0.00 0.00 0.00 72 1015.5
20260831030404 84 302 3.0 15.0 0.00 0.00 0.00 72 1015.6
20260831030304 84 301 4.0 15.0 0.00 0.00 0.00 72 1015.6
20260831030204 84 302 3.0 15.0 0.00 0.00 0.00 72 1015.5
20260831030104 84 299 4.0 15.0 0.00 0.00 0.00 72 1015.6
20260831030004 84 299 4.0 15.0 0.00 0.00 0.00 72 1015.6
20260831025904 84 300 4.0 15.0 0.00 0.00 0.00 72 1015.6
20260831025804 84 299 4.0 15.0 0.00 0.00 0.00 72 1015.6
20260831025704 84 297 4.0 12.0 0.00 0.00 0.00 72 1015.5
20260831025604 84 297 4.0 11.0 0.00 0.00 0.00 72 1015.5
20260831025504 84 297 4.0 11.0 0.00 0.00 0.00 72 1015.5
20260831025404 84 297 4.0 11.0 0.00 0.00 0.00 72 1015.5
20260831025306 84 300 5.0 12.0 0.00 0.00 0.00 72 1015.6
20260831025204 84 301 5.0 12.0 0.00 0.00 0.00 72 1015.5
20260831025104 84 301 4.0 12.0 0.00 0.00 0.00 72 1015.6
20260831025004 84 305 4.0 12.0 0.00 0.00 0.00 72 1015.5
20260831024904 84 304 4.0 12.0 0.00 0.00 0.00 72 1015.5
20260831024804 84 304 4.0 12.0 0.00 0.00 0.00 72 1015.5
20260831024703 84 306 4.0 12.0 0.00 0.00 0.00 72 1015.5
20260831024603 84 307 4.0 12.0 0.00 0.00 0.00 72 1015.7
20260831024503 84 308 4.0 12.0 0.00 0.00 0.00 72 1015.6
20260831024403 84 308 4.0 12.0 0.00 0.00 0.00 72 1015.6
20260831024303 84 306 3.0 11.0 0.00 0.00 0.00 72 1015.5
20260831024203 84 305 3.0 11.0 0.00 0.00 0.00 72 1015.6
20260831024103 84 305 3.0 11.0 0.00 0.00 0.00 72 1015.5
20260831024003 84 303 4.0 11.0 0.00 0.00 0.00 72 1015.5
20260831023903 84 302 4.0 11.0 0.00 0.00 0.00 72 1015.4
20260831023803 84 303 3.0 11.0 0.00 0.00 0.00 72 1015.5
20260831023703 84 300 3.0 9.0 0.00 0.00 0.00 72 1015.5
20260831023603 84 299 3.0 9.0 0.00 0.00 0.00 72 1015.5
20260831023503 84 297 3.0 9.0 0.00 0.00 0.00 72 1015.4
20260831023403 84 297 3.0 9.0 0.00 0.00 0.00 72 1015.5
20260831023303 84 298 3.0 9.0 0.00 0.00 0.00 72 1015.7
20260831023203 84 298 3.0 9.0 0.00 0.00 0.00 72 1015.7
20260831023103 84 298 3.0 9.0 0.00 0.00 0.00 72 1015.8
20260831023003 84 298 3.0 8.0 0.00 0.00 0.00 72 1015.8
20260831022903 84 299 2.0 7.0 0.00 0.00 0.00 72 1015.7
20260831022803 84 299 2.0 7.0 0.00 0.00 0.00 72 1015.7
20260831022703 84 298 3.0 10.0 0.00 0.00 0.00 72 1015.8
20260831022603 84 299 2.0 10.0 0.00 0.00 0.00 72 1015.7
20260831022503 84 300 2.0 10.0 0.00 0.00 0.00 72 1015.8
20260831022403 84 299 2.0 10.0 0.00 0.00 0.00 72 1015.8
20260831022306 84 297 2.0 10.0 0.00 0.00 0.00 72 1015.8
20260831022203 84 299 2.0 10.0 0.00 0.00 0.00 72 1015.7
20260831022103 84 299 3.0 13.0 0.00 0.00 0.00 72 1015.7
20260831022003 84 298 3.0 13.0 0.00 0.00 0.00 72 1015.8
20260831021903 84 298 3.0 13.0 0.00 0.00 0.00 72 1015.7
20260831021803 84 298 3.0 13.0 0.00 0.00 0.00 72 1015.7
20260831021703 84 299 3.0 13.0 0.00 0.00 0.00 72 1015.6
20260831021603 84 298 3.0 13.0 0.00 0.00 0.00 72 1015.7
20260831021503 84 299 3.0 13.0 0.00 0.00 0.00 72 1015.7
20260831021403 84 299 3.0 13.0 0.00 0.00 0.00 72 1015.7
20260831021303 84 300 3.0 13.0 0.00 0.00 0.00 72 1015.6
20260831021203 84 300 3.0 13.0 0.00 0.00 0.00 72 1015.6
20260831021103 84 298 3.0 9.0 0.00 0.00 0.00 72 1015.8
20260831021003 84 301 2.0 9.0 0.00 0.00 0.00 72 1015.7
20260831020903 84 300 3.0 9.0 0.00 0.00 0.00 72 1015.7
20260831020803 84 299 4.0 10.0 0.00 0.00 0.00 72 1015.7
20260831020703 84 300 4.0 10.0 0.00 0.00 0.00 72 1015.7
20260831020603 84 300 4.0 10.0 0.00 0.00 0.00 72 1015.7
20260831020503 84 301 3.0 10.0 0.00 0.00 0.00 72 1015.5
20260831020403 84 301 4.0 10.0 0.00 0.00 0.00 72 1015.6
20260831020303 84 301 3.0 10.0 0.00 0.00 0.00 72 1015.6
20260831020203 84 300 3.0 10.0 0.00 0.00 0.00 72 1015.6
20260831020103 84 300 3.0 10.0 0.00 0.00 0.00 72 1015.7
20260831020003 84 300 3.0 10.0 0.00 0.00 0.00 72 1015.7
20260831015903 84 299 3.0 10.0 0.00 0.00 0.00 72 1015.7
20260831015803 84 298 2.0 9.0 0.00 0.00 0.00 72 1015.7
20260831015703 84 299 2.0 9.0 0.00 0.00 0.00 72 1015.8
20260831015603 84 298 3.0 9.0 0.00 0.00 0.00 72 1015.7
20260831015503 84 298 3.0 9.0 0.00 0.00 0.00 72 1015.7
20260831015403 84 298 3.0 9.0 0.00 0.00 0.00 72 1015.6
20260831015305 84 297 3.0 9.0 0.00 0.00 0.00 72 1015.7
20260831015203 84 298 4.0 9.0 0.00 0.00 0.00 72 1015.6
20260831015103 84 299 4.0 9.0 0.00 0.00 0.00 72 1015.6
20260831015003 84 300 4.0 9.0 0.00 0.00 0.00 72 1015.7
20260831014903 84 302 4.0 11.0 0.00 0.00 0.00 72 1015.6
20260831014803 84 302 4.0 11.0 0.00 0.00 0.00 72 1015.6
20260831014703 84 301 4.0 11.0 0.00 0.00 0.00 72 1015.6
20260831014603 84 302 4.0 11.0 0.00 0.00 0.00 72 1015.7
20260831014503 84 303 4.0 11.0 0.00 0.00 0.00 72 1015.7
20260831014403 84 302 4.0 11.0 0.00 0.00 0.00 72 1015.6
20260831014303 84 302 4.0 11.0 0.00 0.00 0.00 72 1015.7
20260831014203 84 303 4.0 11.0 0.00 0.00 0.00 72 1015.7
20260831014103 84 302 4.0 11.0 0.00 0.00 0.00 72 1015.6
20260831014003 84 301 4.0 11.0 0.00 0.00 0.00 72 1015.5
20260831013903 84 299 3.0 11.0 0.00 0.00 0.00 72 1015.5
20260831013803 84 299 3.0 11.0 0.00 0.00 0.00 72 1015.6
20260831013703 84 299 3.0 11.0 0.00 0.00 0.00 72 1015.5
20260831013603 84 299 3.0 11.0 0.00 0.00 0.00 72 1015.6
20260831013503 84 297 3.0 8.0 0.00 0.00 0.00 72 1015.6
20260831013403 84 298 2.0 7.0 0.00 0.00 0.00 72 1015.7
20260831013303 84 298 2.0 7.0 0.00 0.00 0.00 72 1015.7
20260831013203 84 296 2.0 7.0 0.00 0.00 0.00 72 1015.6
20260831013103 84 296 2.0 7.0 0.00 0.00 0.00 72 1015.6
20260831013003 84 295 2.0 8.0 0.00 0.00 0.00 72 1015.6
20260831012903 84 295 2.0 8.0 0.00 0.00 0.00 72 1015.6
20260831012804 84 296 2.0 8.0 0.00 0.00 0.00 72 1015.6
20260831012704 84 297 2.0 8.0 0.00 0.00 0.00 72 1015.6
20260831012604 84 296 3.0 8.0 0.00 0.00 0.00 72 1015.6
20260831012504 84 297 3.0 8.0 0.00 0.00 0.00 72 1015.6
20260831012404 84 297 3.0 8.0 0.00 0.00 0.00 72 1015.6
20260831012306 84 297 3.0 8.0 0.00 0.00 0.00 72 1015.6
20260831012204 84 298 3.0 8.0 0.00 0.00 0.00 72 1015.5
20260831012104 84 299 2.0 8.0 0.00 0.00 0.00 72 1015.5
20260831012004 84 300 2.0 7.0 0.00 0.00 0.00 72 1015.5
20260831011904 84 300 2.0 7.0 0.00 0.00 0.00 72 1015.6
20260831011804 84 300 2.0 8.0 0.00 0.00 0.00 72 1015.6
20260831011704 84 299 3.0 8.0 0.00 0.00 0.00 72 1015.5
20260831011604 84 301 3.0 8.0 0.00 0.00 0.00 72 1015.6
20260831011504 84 301 3.0 8.0 0.00 0.00 0.00 72 1015.6
20260831011404 84 303 3.0 10.0 0.00 0.00 0.00 72 1015.6
20260831011304 84 302 4.0 10.0 0.00 0.00 0.00 72 1015.6
20260831011204 84 301 4.0 10.0 0.00 0.00 0.00 72 1015.7
20260831011104 84 302 4.0 10.0 0.00 0.00 0.00 72 1015.7
20260831011004 84 301 4.0 10.0 0.00 0.00 0.00 72 1015.6
20260831010904 84 302 4.0 10.0 0.00 0.00 0.00 72 1015.6
20260831010804 84 302 4.0 10.0 0.00 0.00 0.00 72 1015.6
20260831010704 84 302 4.0 10.0 0.00 0.00 0.00 72 1015.6
20260831010604 84 302 4.0 10.0 0.00 0.00 0.00 72 1015.6
20260831010504 84 300 3.0 10.0 0.00 0.00 0.00 72 1015.7
20260831010404 84 299 2.0 8.0 0.00 0.00 0.00 72 1015.6
20260831010304 84 299 2.0 9.0 0.00 0.00 0.00 72 1015.5
20260831010204 84 297 2.0 9.0 0.00 0.00 0.00 72 1015.7
20260831010104 84 298 2.0 9.0 0.00 0.00 0.00 72 1015.6
20260831010004 84 298 2.0 9.0 0.00 0.00 0.00 72 1015.6
20260831005904 84 299 2.0 9.0 0.00 0.00 0.00 72 1015.7
20260831005804 84 301 3.0 9.0 0.00 0.00 0.00 72 1015.6
20260831005704 84 299 3.0 9.0 0.00 0.00 0.00 72 1015.6
20260831005604 84 299 3.0 9.0 0.00 0.00 0.00 72 1015.6
20260831005504 84 299 3.0 9.0 0.00 0.00 0.00 72 1015.6
20260831005404 84 297 3.0 9.0 0.00 0.00 0.00 72 1015.7
20260831005306 84 298 3.0 8.0 0.00 0.00 0.00 72 1015.8
20260831005204 84 299 3.0 8.0 0.00 0.00 0.00 73 1015.7
20260831005104 84 299 3.0 8.0 0.00 0.00 0.00 73 1015.7
20260831005004 84 298 3.0 8.0 0.00 0.00 0.00 73 1015.7
20260831004904 84 296 2.0 8.0 0.00 0.00 0.00 73 1015.8
20260831004803 84 295 2.0 7.0 0.00 0.00 0.00 73 1015.8
20260831004704 84 298 2.0 6.0 0.00 0.00 0.00 73 1015.7
20260831004603 84 298 2.0 7.0 0.00 0.00 0.00 73 1015.6
20260831004504 84 297 2.0 7.0 0.00 0.00 0.00 73 1015.8
20260831004404 84 298 2.0 7.0 0.00 0.00 0.00 73 1015.8
20260831004303 84 297 2.0 7.0 0.00 0.00 0.00 73 1015.8
20260831004203 84 298 2.0 7.0 0.00 0.00 0.00 73 1015.7
20260831004103 84 297 2.0 7.0 0.00 0.00 0.00 73 1015.7
20260831004003 84 297 3.0 7.0 0.00 0.00 0.00 73 1015.6
20260831003903 84 297 3.0 7.0 0.00 0.00 0.00 73 1015.7